| time (UTC) | temp F | wind direction | speed MPH | gust MPH | rain 1hr in | rain 24hr in | rain mn in | humidity % | barometer mb |
| 20260904181905 | 91 | 166 | 5.0 | 10.0 | 0.00 | 0.01 | 0.01 | 54 | 1013.5 |
| 20260904181805 | 91 | 168 | 5.0 | 10.0 | 0.00 | 0.01 | 0.01 | 53 | 1013.5 |
| 20260904181704 | 91 | 163 | 5.0 | 10.0 | 0.00 | 0.01 | 0.01 | 54 | 1013.5 |
| 20260904181605 | 91 | 165 | 5.0 | 10.0 | 0.00 | 0.01 | 0.01 | 54 | 1013.5 |
| 20260904181405 | 91 | 176 | 5.0 | 9.0 | 0.00 | 0.01 | 0.01 | 54 | 1013.5 |
| 20260904181306 | 91 | 182 | 5.0 | 9.0 | 0.00 | 0.01 | 0.01 | 54 | 1013.5 |
| 20260904181205 | 91 | 181 | 5.0 | 9.0 | 0.00 | 0.01 | 0.01 | 54 | 1013.5 |
| 20260904181105 | 91 | 177 | 5.0 | 9.0 | 0.00 | 0.01 | 0.01 | 53 | 1013.5 |
| 20260904180805 | 91 | 189 | 6.0 | 11.0 | 0.00 | 0.01 | 0.01 | 55 | 1013.5 |
| 20260904180705 | 91 | 194 | 6.0 | 11.0 | 0.00 | 0.01 | 0.01 | 55 | 1013.6 |
| 20260904180504 | 91 | 190 | 6.0 | 12.0 | 0.00 | 0.01 | 0.01 | 55 | 1013.6 |
| 20260904180405 | 91 | 188 | 6.0 | 12.0 | 0.00 | 0.01 | 0.01 | 55 | 1013.6 |
| 20260904180304 | 91 | 186 | 6.0 | 12.0 | 0.00 | 0.01 | 0.01 | 55 | 1013.6 |
| 20260904180205 | 91 | 185 | 6.0 | 12.0 | 0.00 | 0.01 | 0.01 | 55 | 1013.7 |
| 20260904180104 | 91 | 189 | 6.0 | 12.0 | 0.00 | 0.01 | 0.01 | 55 | 1013.7 |
| 20260904180005 | 91 | 186 | 6.0 | 12.0 | 0.00 | 0.01 | 0.01 | 55 | 1013.7 |
| 20260904175904 | 92 | 182 | 5.0 | 12.0 | 0.00 | 0.01 | 0.01 | 55 | 1013.7 |
| 20260904175805 | 92 | 170 | 5.0 | 12.0 | 0.00 | 0.01 | 0.01 | 56 | 1013.7 |
| 20260904175604 | 92 | 158 | 5.0 | 12.0 | 0.00 | 0.01 | 0.01 | 57 | 1013.7 |
| 20260904175505 | 91 | 152 | 5.0 | 9.0 | 0.00 | 0.01 | 0.01 | 57 | 1013.7 |
| 20260904175405 | 91 | 150 | 5.0 | 9.0 | 0.00 | 0.01 | 0.01 | 57 | 1013.8 |
| 20260904175306 | 91 | 153 | 5.0 | 9.0 | 0.00 | 0.01 | 0.01 | 57 | 1013.8 |
| 20260904175205 | 91 | 154 | 5.0 | 9.0 | 0.00 | 0.01 | 0.01 | 57 | 1013.8 |
| 20260904175105 | 90 | 156 | 5.0 | 9.0 | 0.00 | 0.01 | 0.01 | 58 | 1013.8 |
| 20260904175005 | 90 | 162 | 5.0 | 9.0 | 0.00 | 0.01 | 0.01 | 57 | 1013.8 |
| 20260904174904 | 90 | 171 | 6.0 | 10.0 | 0.00 | 0.01 | 0.01 | 57 | 1013.8 |
| 20260904174805 | 91 | 182 | 6.0 | 14.0 | 0.00 | 0.01 | 0.01 | 57 | 1013.9 |
| 20260904174704 | 91 | 188 | 6.0 | 14.0 | 0.00 | 0.01 | 0.01 | 57 | 1013.9 |
| 20260904174605 | 91 | 192 | 7.0 | 14.0 | 0.00 | 0.01 | 0.01 | 57 | 1013.9 |
| 20260904174504 | 91 | 196 | 7.0 | 14.0 | 0.00 | 0.01 | 0.01 | 56 | 1013.9 |
| 20260904174405 | 91 | 199 | 7.0 | 14.0 | 0.00 | 0.01 | 0.01 | 57 | 1013.9 |
| 20260904174304 | 91 | 202 | 7.0 | 14.0 | 0.00 | 0.01 | 0.01 | 57 | 1013.9 |
| 20260904174205 | 91 | 202 | 6.0 | 14.0 | 0.00 | 0.01 | 0.01 | 57 | 1013.9 |
| 20260904174005 | 90 | 201 | 6.0 | 14.0 | 0.00 | 0.01 | 0.01 | 57 | 1013.9 |
| 20260904173904 | 90 | 200 | 6.0 | 14.0 | 0.00 | 0.01 | 0.01 | 57 | 1013.9 |
| 20260904173805 | 90 | 198 | 6.0 | 12.0 | 0.00 | 0.01 | 0.01 | 58 | 1013.9 |
| 20260904173705 | 90 | 196 | 5.0 | 12.0 | 0.00 | 0.01 | 0.01 | 58 | 1014.0 |
| 20260904173405 | 90 | 178 | 5.0 | 11.0 | 0.00 | 0.01 | 0.01 | 58 | 1014.0 |
| 20260904173305 | 90 | 176 | 5.0 | 11.0 | 0.00 | 0.01 | 0.01 | 58 | 1014.0 |
| 20260904173205 | 90 | 175 | 5.0 | 11.0 | 0.00 | 0.01 | 0.01 | 58 | 1014.1 |
| 20260904173105 | 90 | 178 | 5.0 | 11.0 | 0.00 | 0.01 | 0.01 | 58 | 1014.1 |
| 20260904172905 | 90 | 178 | 5.0 | 11.0 | 0.00 | 0.01 | 0.01 | 59 | 1014.1 |
| 20260904172805 | 90 | 177 | 5.0 | 11.0 | 0.00 | 0.01 | 0.01 | 59 | 1014.1 |
| 20260904172205 | 90 | 189 | 4.0 | 11.0 | 0.00 | 0.01 | 0.01 | 58 | 1014.2 |
| 20260904172106 | 90 | 178 | 4.0 | 11.0 | 0.00 | 0.01 | 0.01 | 58 | 1014.2 |
| 20260904172005 | 90 | 173 | 4.0 | 11.0 | 0.00 | 0.01 | 0.01 | 58 | 1014.2 |
| 20260904171905 | 90 | 167 | 4.0 | 8.0 | 0.00 | 0.01 | 0.01 | 57 | 1014.2 |
| 20260904171804 | 91 | 167 | 5.0 | 13.0 | 0.00 | 0.01 | 0.01 | 57 | 1014.2 |
| 20260904171705 | 91 | 167 | 5.0 | 13.0 | 0.00 | 0.01 | 0.01 | 57 | 1014.2 |
| 20260904171605 | 91 | 167 | 5.0 | 13.0 | 0.00 | 0.01 | 0.01 | 57 | 1014.2 |
| 20260904171505 | 91 | 162 | 6.0 | 13.0 | 0.00 | 0.01 | 0.01 | 57 | 1014.1 |
| 20260904171405 | 91 | 164 | 6.0 | 13.0 | 0.00 | 0.01 | 0.01 | 57 | 1014.1 |
| 20260904171304 | 91 | 166 | 6.0 | 13.0 | 0.00 | 0.01 | 0.01 | 57 | 1014.1 |
| 20260904171205 | 92 | 167 | 6.0 | 13.0 | 0.00 | 0.01 | 0.01 | 58 | 1014.2 |
| 20260904171105 | 92 | 173 | 6.0 | 13.0 | 0.00 | 0.01 | 0.01 | 58 | 1014.1 |
| 20260904171006 | 92 | 176 | 6.0 | 13.0 | 0.00 | 0.01 | 0.01 | 57 | 1014.2 |
| 20260904170904 | 92 | 178 | 6.0 | 13.0 | 0.00 | 0.01 | 0.01 | 57 | 1014.2 |
| 20260904170804 | 92 | 178 | 5.0 | 12.0 | 0.00 | 0.01 | 0.01 | 56 | 1014.2 |
| 20260904170705 | 92 | 177 | 6.0 | 12.0 | 0.00 | 0.01 | 0.01 | 56 | 1014.2 |
| 20260904170604 | 92 | 177 | 5.0 | 12.0 | 0.00 | 0.01 | 0.01 | 56 | 1014.3 |
| 20260904170505 | 92 | 187 | 5.0 | 11.0 | 0.00 | 0.01 | 0.01 | 56 | 1014.3 |
| 20260904170404 | 92 | 192 | 6.0 | 12.0 | 0.00 | 0.01 | 0.01 | 58 | 1014.3 |
| 20260904170305 | 92 | 196 | 6.0 | 12.0 | 0.00 | 0.01 | 0.01 | 59 | 1014.4 |
| 20260904170204 | 91 | 200 | 6.0 | 12.0 | 0.00 | 0.01 | 0.01 | 58 | 1014.4 |
| 20260904170004 | 91 | 194 | 6.0 | 12.0 | 0.00 | 0.01 | 0.01 | 59 | 1014.3 |
| 20260904165905 | 91 | 196 | 7.0 | 12.0 | 0.00 | 0.01 | 0.01 | 59 | 1014.3 |
| 20260904165805 | 91 | 194 | 7.0 | 12.0 | 0.00 | 0.01 | 0.01 | 57 | 1014.3 |
| 20260904165704 | 91 | 194 | 7.0 | 12.0 | 0.00 | 0.01 | 0.01 | 58 | 1014.3 |
| 20260904165605 | 91 | 195 | 8.0 | 12.0 | 0.00 | 0.01 | 0.01 | 58 | 1014.3 |
| 20260904165505 | 91 | 193 | 8.0 | 12.0 | 0.00 | 0.01 | 0.01 | 59 | 1014.3 |
| 20260904165405 | 91 | 190 | 8.0 | 12.0 | 0.00 | 0.01 | 0.01 | 59 | 1014.3 |
| 20260904165305 | 91 | 187 | 7.0 | 12.0 | 0.00 | 0.01 | 0.01 | 59 | 1014.3 |
| 20260904165105 | 91 | 186 | 7.0 | 12.0 | 0.00 | 0.01 | 0.01 | 57 | 1014.3 |
| 20260904164805 | 91 | 199 | 6.0 | 12.0 | 0.00 | 0.01 | 0.01 | 57 | 1014.3 |
| 20260904164705 | 91 | 200 | 7.0 | 11.0 | 0.00 | 0.01 | 0.01 | 57 | 1014.2 |
| 20260904164604 | 91 | 198 | 6.0 | 11.0 | 0.00 | 0.01 | 0.01 | 57 | 1014.3 |
| 20260904164505 | 91 | 197 | 6.0 | 11.0 | 0.00 | 0.01 | 0.01 | 57 | 1014.3 |
| 20260904164404 | 91 | 196 | 6.0 | 11.0 | 0.00 | 0.01 | 0.01 | 58 | 1014.3 |
| 20260904164305 | 91 | 198 | 6.0 | 11.0 | 0.00 | 0.01 | 0.01 | 59 | 1014.3 |
| 20260904164105 | 91 | 198 | 6.0 | 11.0 | 0.00 | 0.01 | 0.01 | 57 | 1014.3 |
| 20260904164005 | 90 | 196 | 6.0 | 11.0 | 0.00 | 0.01 | 0.01 | 59 | 1014.3 |
| 20260904163905 | 91 | 196 | 7.0 | 11.0 | 0.00 | 0.01 | 0.01 | 59 | 1014.3 |
| 20260904163805 | 91 | 194 | 7.0 | 14.0 | 0.00 | 0.01 | 0.01 | 59 | 1014.3 |
| 20260904163704 | 90 | 193 | 7.0 | 14.0 | 0.00 | 0.01 | 0.01 | 59 | 1014.2 |
| 20260904163505 | 90 | 194 | 7.0 | 14.0 | 0.00 | 0.01 | 0.01 | 60 | 1014.2 |
| 20260904163405 | 90 | 197 | 7.0 | 14.0 | 0.00 | 0.01 | 0.01 | 61 | 1014.3 |
| 20260904163305 | 89 | 198 | 7.0 | 14.0 | 0.00 | 0.01 | 0.01 | 60 | 1014.3 |
| 20260904163205 | 89 | 196 | 7.0 | 14.0 | 0.00 | 0.01 | 0.01 | 61 | 1014.3 |
| 20260904163104 | 89 | 197 | 7.0 | 14.0 | 0.00 | 0.01 | 0.01 | 60 | 1014.3 |
| 20260904163005 | 89 | 197 | 7.0 | 14.0 | 0.00 | 0.01 | 0.01 | 60 | 1014.3 |
| 20260904162905 | 89 | 194 | 6.0 | 14.0 | 0.00 | 0.01 | 0.01 | 60 | 1014.3 |
| 20260904162805 | 89 | 194 | 6.0 | 13.0 | 0.00 | 0.01 | 0.01 | 60 | 1014.3 |
| 20260904162704 | 89 | 193 | 6.0 | 13.0 | 0.00 | 0.01 | 0.01 | 62 | 1014.3 |
| 20260904162605 | 89 | 190 | 6.0 | 11.0 | 0.00 | 0.01 | 0.01 | 62 | 1014.3 |
| 20260904162505 | 89 | 188 | 7.0 | 12.0 | 0.00 | 0.01 | 0.01 | 62 | 1014.4 |
| 20260904162405 | 89 | 185 | 7.0 | 12.0 | 0.00 | 0.01 | 0.01 | 63 | 1014.3 |
| 20260904162306 | 89 | 183 | 7.0 | 12.0 | 0.00 | 0.01 | 0.01 | 65 | 1014.3 |
| 20260904162204 | 88 | 184 | 7.0 | 12.0 | 0.00 | 0.01 | 0.01 | 65 | 1014.3 |
| 20260904162106 | 88 | 183 | 7.0 | 12.0 | 0.00 | 0.01 | 0.01 | 67 | 1014.3 |
| 20260904162005 | 87 | 183 | 7.0 | 12.0 | 0.00 | 0.01 | 0.01 | 67 | 1014.4 |
| 20260904161806 | 86 | 183 | 7.0 | 12.0 | 0.00 | 0.01 | 0.01 | 66 | 1014.4 |
| 20260904161705 | 87 | 185 | 7.0 | 12.0 | 0.00 | 0.01 | 0.01 | 65 | 1014.4 |
| 20260904161604 | 87 | 189 | 7.0 | 12.0 | 0.00 | 0.01 | 0.01 | 65 | 1014.4 |
| 20260904161505 | 87 | 190 | 6.0 | 12.0 | 0.00 | 0.01 | 0.01 | 65 | 1014.4 |
| 20260904161404 | 87 | 193 | 7.0 | 12.0 | 0.00 | 0.01 | 0.01 | 65 | 1014.4 |
| 20260904161305 | 87 | 195 | 7.0 | 12.0 | 0.00 | 0.01 | 0.01 | 65 | 1014.4 |
| 20260904161205 | 87 | 194 | 7.0 | 13.0 | 0.00 | 0.01 | 0.01 | 66 | 1014.4 |
| 20260904161105 | 87 | 192 | 7.0 | 13.0 | 0.00 | 0.01 | 0.01 | 66 | 1014.4 |
| 20260904160904 | 87 | 187 | 7.0 | 13.0 | 0.00 | 0.01 | 0.01 | 67 | 1014.4 |
| 20260904160705 | 87 | 187 | 7.0 | 13.0 | 0.00 | 0.01 | 0.01 | 67 | 1014.4 |
| 20260904160604 | 86 | 184 | 8.0 | 13.0 | 0.00 | 0.01 | 0.01 | 68 | 1014.4 |
| 20260904160505 | 86 | 182 | 8.0 | 13.0 | 0.00 | 0.01 | 0.01 | 68 | 1014.4 |
| 20260904160405 | 86 | 179 | 8.0 | 13.0 | 0.00 | 0.01 | 0.01 | 68 | 1014.4 |
| 20260904160304 | 86 | 178 | 8.0 | 13.0 | 0.00 | 0.01 | 0.01 | 68 | 1014.4 |
| 20260904160204 | 86 | 178 | 8.0 | 13.0 | 0.00 | 0.01 | 0.01 | 69 | 1014.3 |
| 20260904160105 | 86 | 181 | 8.0 | 13.0 | 0.00 | 0.01 | 0.01 | 69 | 1014.4 |
| 20260904160005 | 86 | 183 | 8.0 | 14.0 | 0.00 | 0.01 | 0.01 | 69 | 1014.3 |
| 20260904155905 | 86 | 185 | 8.0 | 14.0 | 0.00 | 0.01 | 0.01 | 70 | 1014.3 |
| 20260904155804 | 86 | 185 | 8.0 | 14.0 | 0.00 | 0.01 | 0.01 | 70 | 1014.3 |
| 20260904155705 | 86 | 183 | 8.0 | 14.0 | 0.00 | 0.01 | 0.01 | 69 | 1014.3 |
| 20260904155604 | 86 | 182 | 8.0 | 14.0 | 0.00 | 0.01 | 0.01 | 68 | 1014.3 |
| 20260904155505 | 86 | 183 | 8.0 | 14.0 | 0.00 | 0.01 | 0.01 | 69 | 1014.2 |
| 20260904155404 | 86 | 184 | 7.0 | 14.0 | 0.00 | 0.01 | 0.01 | 68 | 1014.3 |
| 20260904155307 | 86 | 182 | 7.0 | 14.0 | 0.00 | 0.01 | 0.01 | 69 | 1014.3 |
| 20260904155204 | 86 | 179 | 7.0 | 14.0 | 0.00 | 0.01 | 0.01 | 70 | 1014.3 |
| 20260904154905 | 86 | 175 | 6.0 | 11.0 | 0.00 | 0.01 | 0.01 | 72 | 1014.3 |
| 20260904154805 | 86 | 175 | 6.0 | 11.0 | 0.00 | 0.01 | 0.01 | 72 | 1014.3 |
| 20260904154705 | 85 | 177 | 6.0 | 11.0 | 0.00 | 0.01 | 0.01 | 72 | 1014.3 |
| 20260904154604 | 85 | 177 | 6.0 | 11.0 | 0.00 | 0.01 | 0.01 | 73 | 1014.2 |
| 20260904154505 | 85 | 175 | 6.0 | 11.0 | 0.00 | 0.01 | 0.01 | 74 | 1014.2 |
| 20260904154305 | 84 | 178 | 5.0 | 10.0 | 0.00 | 0.01 | 0.01 | 76 | 1014.2 |
| 20260904154105 | 84 | 183 | 5.0 | 10.0 | 0.00 | 0.01 | 0.01 | 76 | 1014.2 |
| 20260904154004 | 84 | 184 | 5.0 | 10.0 | 0.00 | 0.01 | 0.01 | 76 | 1014.2 |
| 20260904153905 | 84 | 185 | 5.0 | 10.0 | 0.00 | 0.01 | 0.01 | 77 | 1014.2 |
| 20260904153804 | 84 | 186 | 5.0 | 10.0 | 0.00 | 0.01 | 0.01 | 78 | 1014.2 |
| 20260904153705 | 84 | 186 | 5.0 | 10.0 | 0.00 | 0.01 | 0.01 | 77 | 1014.1 |
| 20260904153605 | 83 | 187 | 5.0 | 10.0 | 0.00 | 0.01 | 0.01 | 77 | 1014.1 |
| 20260904153505 | 84 | 192 | 4.0 | 10.0 | 0.00 | 0.01 | 0.01 | 78 | 1014.1 |
| 20260904153404 | 84 | 194 | 4.0 | 10.0 | 0.00 | 0.01 | 0.01 | 78 | 1014.1 |
| 20260904153305 | 83 | 195 | 5.0 | 10.0 | 0.00 | 0.01 | 0.01 | 78 | 1014.1 |
| 20260904153204 | 83 | 196 | 5.0 | 10.0 | 0.00 | 0.01 | 0.01 | 78 | 1014.2 |
| 20260904153105 | 83 | 197 | 5.0 | 10.0 | 0.00 | 0.01 | 0.01 | 78 | 1014.1 |
| 20260904152905 | 83 | 199 | 6.0 | 10.0 | 0.00 | 0.01 | 0.01 | 78 | 1014.2 |
| 20260904152805 | 83 | 200 | 6.0 | 10.0 | 0.00 | 0.01 | 0.01 | 78 | 1014.2 |
| 20260904152704 | 83 | 201 | 5.0 | 10.0 | 0.00 | 0.01 | 0.01 | 79 | 1014.2 |
| 20260904152504 | 82 | 201 | 6.0 | 10.0 | 0.00 | 0.01 | 0.01 | 79 | 1014.2 |
| 20260904152405 | 82 | 199 | 6.0 | 10.0 | 0.00 | 0.01 | 0.01 | 80 | 1014.2 |
| 20260904152306 | 82 | 198 | 5.0 | 10.0 | 0.00 | 0.01 | 0.01 | 79 | 1014.2 |
| 20260904152204 | 82 | 197 | 5.0 | 10.0 | 0.00 | 0.01 | 0.01 | 80 | 1014.2 |
| 20260904152005 | 82 | 199 | 5.0 | 10.0 | 0.00 | 0.01 | 0.01 | 80 | 1014.2 |
| 20260904151905 | 82 | 199 | 5.0 | 10.0 | 0.00 | 0.01 | 0.01 | 80 | 1014.2 |
| 20260904151804 | 82 | 197 | 5.0 | 10.0 | 0.00 | 0.01 | 0.01 | 80 | 1014.2 |
| 20260904151705 | 82 | 198 | 5.0 | 10.0 | 0.00 | 0.01 | 0.01 | 80 | 1014.2 |
| 20260904151604 | 82 | 198 | 5.0 | 10.0 | 0.00 | 0.01 | 0.01 | 80 | 1014.2 |
| 20260904151304 | 82 | 207 | 5.0 | 10.0 | 0.00 | 0.01 | 0.01 | 81 | 1014.2 |
| 20260904151205 | 82 | 207 | 4.0 | 10.0 | 0.00 | 0.01 | 0.01 | 81 | 1014.2 |
| 20260904151104 | 82 | 206 | 4.0 | 9.0 | 0.00 | 0.01 | 0.01 | 81 | 1014.2 |
| 20260904151005 | 82 | 206 | 5.0 | 10.0 | 0.00 | 0.01 | 0.01 | 81 | 1014.2 |
| 20260904150905 | 82 | 206 | 5.0 | 10.0 | 0.00 | 0.01 | 0.01 | 81 | 1014.3 |
| 20260904150704 | 81 | 207 | 5.0 | 10.0 | 0.00 | 0.01 | 0.01 | 82 | 1014.2 |
| 20260904150605 | 81 | 206 | 5.0 | 10.0 | 0.00 | 0.01 | 0.01 | 82 | 1014.3 |
| 20260904150505 | 81 | 206 | 5.0 | 11.0 | 0.00 | 0.01 | 0.01 | 82 | 1014.2 |
| 20260904150304 | 81 | 204 | 5.0 | 11.0 | 0.00 | 0.01 | 0.01 | 82 | 1014.2 |
| 20260904150204 | 81 | 204 | 6.0 | 11.0 | 0.00 | 0.01 | 0.01 | 82 | 1014.2 |
| 20260904150105 | 81 | 204 | 6.0 | 11.0 | 0.00 | 0.01 | 0.01 | 82 | 1014.2 |
| 20260904150004 | 81 | 204 | 5.0 | 11.0 | 0.00 | 0.01 | 0.01 | 82 | 1014.2 |
| 20260904145905 | 81 | 205 | 6.0 | 11.0 | 0.00 | 0.01 | 0.01 | 82 | 1014.2 |
| 20260904145705 | 80 | 206 | 5.0 | 11.0 | 0.00 | 0.01 | 0.01 | 82 | 1014.2 |
| 20260904145604 | 80 | 207 | 5.0 | 11.0 | 0.00 | 0.01 | 0.01 | 82 | 1014.2 |
| 20260904145306 | 80 | 209 | 5.0 | 11.0 | 0.00 | 0.01 | 0.01 | 82 | 1014.2 |
| 20260904145204 | 80 | 211 | 6.0 | 11.0 | 0.00 | 0.01 | 0.01 | 82 | 1014.2 |
| 20260904145004 | 80 | 213 | 6.0 | 13.0 | 0.00 | 0.01 | 0.01 | 82 | 1014.2 |
| 20260904144804 | 80 | 214 | 6.0 | 13.0 | 0.00 | 0.01 | 0.01 | 83 | 1014.1 |
| 20260904144705 | 80 | 215 | 6.0 | 13.0 | 0.00 | 0.01 | 0.01 | 83 | 1014.0 |
| 20260904144605 | 80 | 217 | 6.0 | 13.0 | 0.00 | 0.01 | 0.01 | 83 | 1014.0 |
| 20260904144404 | 80 | 217 | 6.0 | 13.0 | 0.00 | 0.01 | 0.01 | 83 | 1014.0 |
| 20260904144305 | 80 | 218 | 6.0 | 13.0 | 0.00 | 0.01 | 0.01 | 83 | 1014.0 |
| 20260904144204 | 80 | 219 | 6.0 | 13.0 | 0.00 | 0.01 | 0.01 | 83 | 1013.9 |
| 20260904144004 | 80 | 221 | 5.0 | 11.0 | 0.00 | 0.01 | 0.01 | 83 | 1013.9 |
| 20260904143904 | 80 | 223 | 5.0 | 11.0 | 0.00 | 0.01 | 0.01 | 83 | 1013.9 |
| 20260904143805 | 80 | 223 | 5.0 | 10.0 | 0.00 | 0.01 | 0.01 | 83 | 1013.9 |
| 20260904143605 | 80 | 225 | 6.0 | 11.0 | 0.00 | 0.01 | 0.01 | 84 | 1013.9 |
| 20260904143505 | 80 | 225 | 6.0 | 11.0 | 0.00 | 0.01 | 0.01 | 84 | 1013.9 |
| 20260904143404 | 80 | 226 | 6.0 | 11.0 | 0.00 | 0.01 | 0.01 | 84 | 1014.0 |
| 20260904143204 | 80 | 230 | 6.0 | 11.0 | 0.00 | 0.01 | 0.01 | 84 | 1013.9 |
| 20260904143105 | 80 | 230 | 6.0 | 11.0 | 0.00 | 0.01 | 0.01 | 84 | 1013.9 |
| 20260904143004 | 80 | 232 | 6.0 | 11.0 | 0.00 | 0.01 | 0.01 | 84 | 1013.8 |
| 20260904142905 | 80 | 231 | 6.0 | 11.0 | 0.00 | 0.01 | 0.01 | 84 | 1013.9 |
| 20260904142804 | 80 | 231 | 6.0 | 11.0 | 0.00 | 0.01 | 0.01 | 84 | 1013.9 |
| 20260904142604 | 80 | 234 | 6.0 | 12.0 | 0.00 | 0.01 | 0.01 | 84 | 1013.8 |
| 20260904142405 | 80 | 236 | 6.0 | 12.0 | 0.00 | 0.01 | 0.01 | 85 | 1013.8 |
| 20260904142306 | 80 | 235 | 6.0 | 12.0 | 0.00 | 0.01 | 0.01 | 85 | 1013.8 |
| 20260904141905 | 79 | 231 | 6.0 | 12.0 | 0.00 | 0.01 | 0.01 | 85 | 1013.8 |
| 20260904141604 | 79 | 227 | 5.0 | 10.0 | 0.00 | 0.01 | 0.01 | 85 | 1013.8 |
| 20260904141505 | 79 | 224 | 5.0 | 10.0 | 0.00 | 0.01 | 0.01 | 86 | 1013.8 |
| 20260904141404 | 79 | 221 | 4.0 | 10.0 | 0.00 | 0.01 | 0.01 | 86 | 1013.8 |
| 20260904141305 | 79 | 218 | 4.0 | 10.0 | 0.00 | 0.01 | 0.01 | 86 | 1013.8 |
| 20260904141105 | 79 | 212 | 4.0 | 10.0 | 0.00 | 0.01 | 0.01 | 86 | 1013.8 |
| 20260904141004 | 79 | 209 | 4.0 | 10.0 | 0.00 | 0.01 | 0.01 | 87 | 1013.7 |
| 20260904140804 | 79 | 205 | 4.0 | 10.0 | 0.00 | 0.01 | 0.01 | 87 | 1013.7 |
| 20260904140705 | 79 | 205 | 5.0 | 10.0 | 0.00 | 0.01 | 0.01 | 87 | 1013.7 |
| 20260904140604 | 79 | 203 | 5.0 | 10.0 | 0.00 | 0.01 | 0.01 | 87 | 1013.7 |
| 20260904140505 | 79 | 205 | 5.0 | 10.0 | 0.00 | 0.01 | 0.01 | 87 | 1013.7 |
| 20260904140404 | 79 | 208 | 5.0 | 10.0 | 0.00 | 0.01 | 0.01 | 87 | 1013.7 |
| 20260904140305 | 79 | 210 | 4.0 | 10.0 | 0.00 | 0.01 | 0.01 | 87 | 1013.6 |
| 20260904140204 | 79 | 211 | 4.0 | 10.0 | 0.00 | 0.01 | 0.01 | 87 | 1013.6 |
| 20260904140105 | 79 | 212 | 4.0 | 10.0 | 0.00 | 0.01 | 0.01 | 87 | 1013.7 |
| 20260904135905 | 79 | 219 | 4.0 | 9.0 | 0.00 | 0.01 | 0.01 | 88 | 1013.6 |
| 20260904135804 | 79 | 221 | 3.0 | 9.0 | 0.00 | 0.01 | 0.01 | 88 | 1013.6 |
| 20260904135605 | 79 | 227 | 3.0 | 9.0 | 0.00 | 0.01 | 0.01 | 88 | 1013.6 |
| 20260904135404 | 78 | 228 | 3.0 | 6.0 | 0.00 | 0.01 | 0.01 | 88 | 1013.6 |
| 20260904135306 | 78 | 226 | 3.0 | 6.0 | 0.00 | 0.01 | 0.01 | 88 | 1013.6 |
| 20260904135204 | 78 | 224 | 3.0 | 6.0 | 0.00 | 0.01 | 0.01 | 89 | 1013.6 |
| 20260904135105 | 78 | 222 | 3.0 | 8.0 | 0.00 | 0.01 | 0.01 | 89 | 1013.6 |
| 20260904135004 | 78 | 222 | 4.0 | 8.0 | 0.00 | 0.01 | 0.01 | 89 | 1013.6 |
| 20260904134905 | 78 | 221 | 4.0 | 8.0 | 0.00 | 0.01 | 0.01 | 89 | 1013.6 |
| 20260904134804 | 78 | 220 | 4.0 | 8.0 | 0.00 | 0.01 | 0.01 | 89 | 1013.6 |
| 20260904134705 | 78 | 220 | 4.0 | 8.0 | 0.00 | 0.01 | 0.01 | 89 | 1013.6 |
| 20260904134604 | 78 | 220 | 4.0 | 8.0 | 0.00 | 0.01 | 0.01 | 89 | 1013.6 |
| 20260904134404 | 78 | 222 | 4.0 | 8.0 | 0.00 | 0.01 | 0.01 | 89 | 1013.6 |
| 20260904134305 | 78 | 222 | 4.0 | 8.0 | 0.00 | 0.01 | 0.01 | 89 | 1013.6 |
| 20260904134204 | 78 | 224 | 3.0 | 8.0 | 0.00 | 0.01 | 0.01 | 89 | 1013.6 |
| 20260904134004 | 78 | 227 | 3.0 | 7.0 | 0.00 | 0.01 | 0.01 | 89 | 1013.6 |
| 20260904133904 | 78 | 228 | 3.0 | 6.0 | 0.00 | 0.01 | 0.01 | 89 | 1013.7 |
| 20260904133805 | 78 | 227 | 3.0 | 6.0 | 0.00 | 0.01 | 0.01 | 89 | 1013.7 |
| 20260904133605 | 78 | 225 | 3.0 | 7.0 | 0.00 | 0.01 | 0.01 | 89 | 1013.7 |
| 20260904133504 | 78 | 223 | 3.0 | 7.0 | 0.00 | 0.01 | 0.01 | 89 | 1013.7 |
| 20260904133404 | 78 | 219 | 3.0 | 7.0 | 0.00 | 0.01 | 0.01 | 89 | 1013.7 |
| 20260904133304 | 78 | 217 | 3.0 | 8.0 | 0.00 | 0.01 | 0.01 | 89 | 1013.7 |
| 20260904133204 | 78 | 216 | 4.0 | 8.0 | 0.00 | 0.01 | 0.01 | 89 | 1013.7 |
| 20260904133104 | 78 | 214 | 4.0 | 8.0 | 0.00 | 0.01 | 0.01 | 89 | 1013.7 |
| 20260904133004 | 78 | 213 | 4.0 | 8.0 | 0.00 | 0.01 | 0.01 | 89 | 1013.7 |
| 20260904132904 | 78 | 211 | 4.0 | 8.0 | 0.00 | 0.01 | 0.01 | 89 | 1013.7 |
| 20260904132704 | 78 | 211 | 4.0 | 8.0 | 0.00 | 0.01 | 0.01 | 89 | 1013.7 |
| 20260904132604 | 78 | 211 | 4.0 | 8.0 | 0.00 | 0.01 | 0.01 | 89 | 1013.7 |
| 20260904132505 | 78 | 210 | 4.0 | 8.0 | 0.00 | 0.01 | 0.01 | 89 | 1013.7 |
| 20260904132306 | 78 | 214 | 3.0 | 6.0 | 0.00 | 0.01 | 0.01 | 89 | 1013.7 |
| 20260904132205 | 78 | 215 | 3.0 | 6.0 | 0.00 | 0.01 | 0.01 | 89 | 1013.7 |
| 20260904132104 | 78 | 217 | 3.0 | 6.0 | 0.00 | 0.01 | 0.01 | 89 | 1013.7 |
| 20260904131804 | 78 | 216 | 3.0 | 6.0 | 0.00 | 0.01 | 0.01 | 90 | 1013.7 |
| 20260904131605 | 78 | 216 | 3.0 | 7.0 | 0.00 | 0.01 | 0.01 | 90 | 1013.7 |
| 20260904131504 | 77 | 214 | 3.0 | 8.0 | 0.00 | 0.01 | 0.01 | 89 | 1013.7 |
| 20260904131405 | 77 | 212 | 4.0 | 8.0 | 0.00 | 0.01 | 0.01 | 89 | 1013.7 |
| 20260904131304 | 77 | 213 | 4.0 | 9.0 | 0.00 | 0.01 | 0.01 | 89 | 1013.7 |
| 20260904131204 | 77 | 211 | 4.0 | 9.0 | 0.00 | 0.01 | 0.01 | 90 | 1013.7 |
| 20260904130905 | 77 | 207 | 5.0 | 9.0 | 0.00 | 0.01 | 0.01 | 90 | 1013.6 |
| 20260904130804 | 77 | 206 | 5.0 | 9.0 | 0.00 | 0.01 | 0.01 | 90 | 1013.5 |
| 20260904130705 | 77 | 204 | 5.0 | 10.0 | 0.00 | 0.01 | 0.01 | 90 | 1013.5 |
| 20260904130604 | 77 | 204 | 5.0 | 10.0 | 0.00 | 0.01 | 0.01 | 90 | 1013.4 |
| 20260904130504 | 77 | 203 | 5.0 | 10.0 | 0.00 | 0.01 | 0.01 | 90 | 1013.5 |
| 20260904130405 | 77 | 202 | 5.0 | 10.0 | 0.00 | 0.01 | 0.01 | 90 | 1013.4 |
| 20260904130304 | 77 | 201 | 5.0 | 10.0 | 0.00 | 0.01 | 0.01 | 90 | 1013.4 |
| 20260904130204 | 77 | 201 | 5.0 | 10.0 | 0.00 | 0.01 | 0.01 | 90 | 1013.3 |
| 20260904130104 | 77 | 200 | 5.0 | 10.0 | 0.00 | 0.01 | 0.01 | 90 | 1013.3 |
| 20260904125904 | 77 | 199 | 5.0 | 10.0 | 0.00 | 0.01 | 0.01 | 90 | 1013.3 |
| 20260904125804 | 77 | 198 | 5.0 | 10.0 | 0.01 | 0.01 | 0.01 | 90 | 1013.3 |
| 20260904125705 | 77 | 195 | 5.0 | 9.0 | 0.01 | 0.01 | 0.01 | 90 | 1013.3 |
| 20260904125505 | 77 | 191 | 4.0 | 8.0 | 0.01 | 0.01 | 0.01 | 90 | 1013.3 |
| 20260904125405 | 77 | 190 | 4.0 | 8.0 | 0.01 | 0.01 | 0.01 | 90 | 1013.3 |
| 20260904125205 | 77 | 184 | 4.0 | 10.0 | 0.01 | 0.01 | 0.01 | 90 | 1013.3 |
| 20260904125105 | 77 | 182 | 5.0 | 10.0 | 0.01 | 0.01 | 0.01 | 90 | 1013.3 |
| 20260904124904 | 77 | 178 | 5.0 | 10.0 | 0.01 | 0.01 | 0.01 | 90 | 1013.3 |
| 20260904124804 | 77 | 179 | 5.0 | 10.0 | 0.01 | 0.01 | 0.01 | 90 | 1013.3 |
| 20260904124704 | 77 | 179 | 6.0 | 10.0 | 0.01 | 0.01 | 0.01 | 90 | 1013.3 |
| 20260904124605 | 77 | 181 | 6.0 | 10.0 | 0.01 | 0.01 | 0.01 | 90 | 1013.3 |
| 20260904124504 | 77 | 178 | 6.0 | 10.0 | 0.01 | 0.01 | 0.01 | 90 | 1013.3 |
| 20260904124405 | 77 | 177 | 6.0 | 10.0 | 0.01 | 0.01 | 0.01 | 90 | 1013.2 |
| 20260904124304 | 77 | 176 | 7.0 | 10.0 | 0.01 | 0.01 | 0.01 | 90 | 1013.2 |
| 20260904124204 | 77 | 176 | 7.0 | 10.0 | 0.01 | 0.01 | 0.01 | 90 | 1013.2 |
| 20260904124104 | 77 | 176 | 7.0 | 10.0 | 0.01 | 0.01 | 0.01 | 90 | 1013.2 |
| 20260904124005 | 77 | 176 | 7.0 | 10.0 | 0.01 | 0.01 | 0.01 | 90 | 1013.1 |
| 20260904123904 | 77 | 175 | 7.0 | 10.0 | 0.01 | 0.01 | 0.01 | 90 | 1013.2 |
| 20260904123805 | 77 | 175 | 7.0 | 11.0 | 0.01 | 0.01 | 0.01 | 90 | 1013.1 |
| 20260904123705 | 77 | 176 | 7.0 | 11.0 | 0.01 | 0.01 | 0.01 | 90 | 1013.2 |
| 20260904123604 | 77 | 176 | 7.0 | 11.0 | 0.01 | 0.01 | 0.01 | 90 | 1013.1 |
| 20260904123505 | 77 | 175 | 7.0 | 11.0 | 0.01 | 0.01 | 0.01 | 90 | 1013.1 |
| 20260904123405 | 77 | 175 | 7.0 | 11.0 | 0.01 | 0.01 | 0.01 | 90 | 1013.2 |
| 20260904123304 | 77 | 175 | 7.0 | 11.0 | 0.01 | 0.01 | 0.01 | 90 | 1013.1 |
| 20260904123204 | 77 | 175 | 7.0 | 11.0 | 0.01 | 0.01 | 0.01 | 90 | 1013.1 |
| 20260904123104 | 77 | 175 | 7.0 | 11.0 | 0.01 | 0.01 | 0.01 | 90 | 1013.1 |
| 20260904123005 | 77 | 175 | 7.0 | 11.0 | 0.01 | 0.01 | 0.01 | 90 | 1013.1 |
| 20260904122904 | 77 | 174 | 7.0 | 11.0 | 0.01 | 0.01 | 0.01 | 90 | 1013.1 |
| 20260904122805 | 77 | 172 | 7.0 | 11.0 | 0.01 | 0.01 | 0.01 | 90 | 1013.1 |
| 20260904122704 | 77 | 171 | 7.0 | 11.0 | 0.01 | 0.01 | 0.01 | 89 | 1013.1 |
| 20260904122605 | 77 | 171 | 7.0 | 11.0 | 0.01 | 0.01 | 0.01 | 89 | 1013.0 |
| 20260904122504 | 77 | 172 | 7.0 | 11.0 | 0.01 | 0.01 | 0.01 | 89 | 1013.0 |
| 20260904122405 | 77 | 174 | 7.0 | 11.0 | 0.01 | 0.01 | 0.01 | 89 | 1013.1 |
| 20260904122204 | 77 | 176 | 6.0 | 10.0 | 0.01 | 0.01 | 0.01 | 89 | 1013.0 |
| 20260904122104 | 77 | 177 | 6.0 | 10.0 | 0.01 | 0.01 | 0.01 | 89 | 1013.0 |
| 20260904122004 | 77 | 179 | 6.0 | 10.0 | 0.01 | 0.01 | 0.01 | 89 | 1013.0 |
| 20260904121904 | 77 | 181 | 6.0 | 10.0 | 0.01 | 0.01 | 0.01 | 89 | 1013.0 |
| 20260904121804 | 77 | 183 | 5.0 | 10.0 | 0.01 | 0.01 | 0.01 | 89 | 1013.0 |
| 20260904121705 | 77 | 183 | 5.0 | 10.0 | 0.01 | 0.01 | 0.01 | 89 | 1013.0 |
| 20260904121604 | 77 | 182 | 6.0 | 10.0 | 0.01 | 0.01 | 0.01 | 89 | 1013.1 |
| 20260904121505 | 77 | 181 | 5.0 | 10.0 | 0.01 | 0.01 | 0.01 | 89 | 1013.1 |
| 20260904121404 | 77 | 177 | 6.0 | 9.0 | 0.01 | 0.01 | 0.01 | 89 | 1013.1 |
| 20260904121304 | 77 | 175 | 6.0 | 10.0 | 0.01 | 0.01 | 0.01 | 89 | 1013.1 |
| 20260904121204 | 77 | 173 | 6.0 | 10.0 | 0.01 | 0.01 | 0.01 | 89 | 1013.1 |
| 20260904121105 | 77 | 171 | 6.0 | 10.0 | 0.01 | 0.01 | 0.01 | 89 | 1013.1 |
| 20260904121004 | 77 | 171 | 6.0 | 10.0 | 0.01 | 0.01 | 0.01 | 89 | 1013.1 |
| 20260904120904 | 77 | 170 | 6.0 | 10.0 | 0.01 | 0.01 | 0.01 | 89 | 1013.1 |
| 20260904120804 | 77 | 169 | 6.0 | 10.0 | 0.01 | 0.01 | 0.01 | 89 | 1013.1 |
| 20260904120704 | 77 | 169 | 6.0 | 10.0 | 0.01 | 0.01 | 0.01 | 89 | 1013.1 |
| 20260904120604 | 77 | 169 | 5.0 | 10.0 | 0.01 | 0.01 | 0.01 | 89 | 1013.1 |
| 20260904120504 | 77 | 168 | 5.0 | 10.0 | 0.01 | 0.01 | 0.01 | 89 | 1013.0 |
| 20260904120404 | 77 | 168 | 5.0 | 10.0 | 0.01 | 0.01 | 0.01 | 89 | 1013.0 |
| 20260904120305 | 77 | 168 | 4.0 | 8.0 | 0.01 | 0.01 | 0.01 | 89 | 1013.0 |
| 20260904120204 | 77 | 168 | 4.0 | 8.0 | 0.01 | 0.01 | 0.01 | 89 | 1013.0 |
| 20260904120105 | 77 | 167 | 4.0 | 8.0 | 0.01 | 0.01 | 0.01 | 89 | 1013.0 |
| 20260904120004 | 77 | 167 | 4.0 | 8.0 | 0.01 | 0.01 | 0.01 | 89 | 1013.1 |
| 20260904115904 | 77 | 166 | 4.0 | 8.0 | 0.00 | 0.00 | 0.00 | 89 | 1013.1 |
| 20260904115804 | 77 | 166 | 4.0 | 8.0 | 0.00 | 0.00 | 0.00 | 89 | 1013.0 |
| 20260904115704 | 77 | 168 | 4.0 | 8.0 | 0.00 | 0.00 | 0.00 | 89 | 1013.0 |
| 20260904115604 | 77 | 168 | 4.0 | 7.0 | 0.00 | 0.00 | 0.00 | 89 | 1013.1 |
| 20260904115505 | 77 | 169 | 4.0 | 7.0 | 0.00 | 0.00 | 0.00 | 89 | 1013.1 |
| 20260904115404 | 77 | 171 | 4.0 | 7.0 | 0.00 | 0.00 | 0.00 | 89 | 1013.0 |
| 20260904115306 | 77 | 172 | 4.0 | 7.0 | 0.00 | 0.00 | 0.00 | 89 | 1013.0 |
| 20260904115204 | 77 | 172 | 4.0 | 7.0 | 0.00 | 0.00 | 0.00 | 89 | 1013.0 |
| 20260904115105 | 77 | 172 | 4.0 | 7.0 | 0.00 | 0.00 | 0.00 | 89 | 1013.0 |
| 20260904115004 | 77 | 170 | 4.0 | 7.0 | 0.00 | 0.00 | 0.00 | 89 | 1013.0 |
| 20260904114905 | 77 | 168 | 3.0 | 7.0 | 0.00 | 0.00 | 0.00 | 89 | 1013.0 |
| 20260904114704 | 77 | 162 | 3.0 | 7.0 | 0.00 | 0.00 | 0.00 | 88 | 1013.0 |
| 20260904114605 | 77 | 158 | 4.0 | 7.0 | 0.00 | 0.00 | 0.00 | 88 | 1013.0 |
| 20260904114504 | 77 | 154 | 3.0 | 7.0 | 0.00 | 0.00 | 0.00 | 88 | 1012.9 |
| 20260904114304 | 77 | 146 | 3.0 | 8.0 | 0.00 | 0.00 | 0.00 | 88 | 1013.0 |
| 20260904114105 | 77 | 140 | 3.0 | 8.0 | 0.00 | 0.00 | 0.00 | 88 | 1013.0 |
| 20260904114004 | 77 | 136 | 3.0 | 8.0 | 0.00 | 0.00 | 0.00 | 88 | 1013.0 |
| 20260904113904 | 78 | 133 | 3.0 | 8.0 | 0.00 | 0.00 | 0.00 | 88 | 1013.1 |
| 20260904113804 | 78 | 132 | 3.0 | 8.0 | 0.00 | 0.00 | 0.00 | 88 | 1013.1 |
| 20260904113704 | 78 | 131 | 3.0 | 8.0 | 0.00 | 0.00 | 0.00 | 88 | 1013.1 |
| 20260904113604 | 78 | 131 | 3.0 | 8.0 | 0.00 | 0.00 | 0.00 | 88 | 1013.1 |
| 20260904113504 | 78 | 130 | 3.0 | 8.0 | 0.00 | 0.00 | 0.00 | 88 | 1013.0 |
| 20260904113304 | 78 | 130 | 3.0 | 8.0 | 0.00 | 0.00 | 0.00 | 88 | 1013.0 |
| 20260904113104 | 78 | 129 | 3.0 | 8.0 | 0.00 | 0.00 | 0.00 | 87 | 1013.0 |
| 20260904113005 | 78 | 128 | 3.0 | 8.0 | 0.00 | 0.00 | 0.00 | 87 | 1013.0 |
| 20260904112806 | 78 | 129 | 3.0 | 8.0 | 0.00 | 0.00 | 0.00 | 87 | 1012.9 |
| 20260904112705 | 78 | 129 | 3.0 | 8.0 | 0.00 | 0.00 | 0.00 | 87 | 1012.9 |
| 20260904112605 | 78 | 128 | 3.0 | 8.0 | 0.00 | 0.00 | 0.00 | 87 | 1012.9 |
| 20260904112504 | 78 | 130 | 3.0 | 8.0 | 0.00 | 0.00 | 0.00 | 87 | 1012.9 |
| 20260904112405 | 78 | 129 | 2.0 | 8.0 | 0.00 | 0.00 | 0.00 | 87 | 1012.9 |
| 20260904112306 | 78 | 129 | 2.0 | 6.0 | 0.00 | 0.00 | 0.00 | 87 | 1012.9 |
| 20260904112204 | 78 | 132 | 2.0 | 7.0 | 0.00 | 0.00 | 0.00 | 87 | 1012.9 |
| 20260904112104 | 78 | 132 | 2.0 | 7.0 | 0.00 | 0.00 | 0.00 | 87 | 1012.9 |
| 20260904112004 | 78 | 132 | 2.0 | 7.0 | 0.00 | 0.00 | 0.00 | 87 | 1012.9 |
| 20260904111905 | 78 | 129 | 2.0 | 7.0 | 0.00 | 0.00 | 0.00 | 87 | 1012.9 |
| 20260904111804 | 78 | 125 | 2.0 | 7.0 | 0.00 | 0.00 | 0.00 | 87 | 1012.9 |
| 20260904111704 | 78 | 121 | 3.0 | 7.0 | 0.00 | 0.00 | 0.00 | 87 | 1012.9 |
| 20260904111605 | 78 | 119 | 3.0 | 7.0 | 0.00 | 0.00 | 0.00 | 87 | 1012.9 |
| 20260904111504 | 78 | 115 | 3.0 | 7.0 | 0.00 | 0.00 | 0.00 | 87 | 1012.9 |
| 20260904111405 | 78 | 116 | 3.0 | 7.0 | 0.00 | 0.00 | 0.00 | 87 | 1012.9 |
| 20260904111304 | 78 | 114 | 3.0 | 7.0 | 0.00 | 0.00 | 0.00 | 87 | 1012.9 |
| 20260904111204 | 78 | 110 | 3.0 | 6.0 | 0.00 | 0.00 | 0.00 | 86 | 1012.9 |
| 20260904111104 | 78 | 108 | 3.0 | 6.0 | 0.00 | 0.00 | 0.00 | 86 | 1012.9 |
| 20260904110904 | 78 | 108 | 3.0 | 6.0 | 0.00 | 0.00 | 0.00 | 86 | 1012.9 |
| 20260904110805 | 78 | 107 | 3.0 | 6.0 | 0.00 | 0.00 | 0.00 | 86 | 1012.9 |
| 20260904110605 | 78 | 105 | 2.0 | 6.0 | 0.00 | 0.00 | 0.00 | 86 | 1012.9 |
| 20260904110504 | 78 | 102 | 2.0 | 6.0 | 0.00 | 0.00 | 0.00 | 86 | 1013.0 |
| 20260904110405 | 78 | 98 | 2.0 | 6.0 | 0.00 | 0.00 | 0.00 | 86 | 1013.0 |
| 20260904110304 | 78 | 94 | 2.0 | 4.0 | 0.00 | 0.00 | 0.00 | 86 | 1013.0 |
| 20260904110206 | 78 | 92 | 2.0 | 4.0 | 0.00 | 0.00 | 0.00 | 86 | 1012.9 |
| 20260904110005 | 78 | 91 | 3.0 | 5.0 | 0.00 | 0.00 | 0.00 | 85 | 1013.0 |
| 20260904105904 | 78 | 91 | 3.0 | 5.0 | 0.00 | 0.00 | 0.00 | 85 | 1013.0 |
| 20260904105804 | 78 | 91 | 3.0 | 5.0 | 0.00 | 0.00 | 0.00 | 85 | 1013.0 |
| 20260904105704 | 78 | 92 | 3.0 | 5.0 | 0.00 | 0.00 | 0.00 | 85 | 1013.0 |
| 20260904105504 | 78 | 93 | 2.0 | 5.0 | 0.00 | 0.00 | 0.00 | 85 | 1013.0 |
| 20260904105404 | 78 | 95 | 2.0 | 5.0 | 0.00 | 0.00 | 0.00 | 84 | 1013.0 |
| 20260904105306 | 79 | 97 | 2.0 | 5.0 | 0.00 | 0.00 | 0.00 | 84 | 1012.9 |
| 20260904105204 | 79 | 100 | 2.0 | 5.0 | 0.00 | 0.00 | 0.00 | 84 | 1012.9 |
| 20260904104904 | 79 | 107 | 2.0 | 5.0 | 0.00 | 0.00 | 0.00 | 84 | 1012.8 |
| 20260904104804 | 79 | 111 | 2.0 | 5.0 | 0.00 | 0.00 | 0.00 | 83 | 1012.7 |
| 20260904104704 | 79 | 114 | 2.0 | 5.0 | 0.00 | 0.00 | 0.00 | 83 | 1012.7 |
| 20260904104604 | 79 | 115 | 3.0 | 5.0 | 0.00 | 0.00 | 0.00 | 83 | 1012.7 |
| 20260904104504 | 79 | 116 | 3.0 | 5.0 | 0.00 | 0.00 | 0.00 | 83 | 1012.7 |
| 20260904104404 | 79 | 117 | 3.0 | 5.0 | 0.00 | 0.00 | 0.00 | 83 | 1012.6 |
| 20260904104304 | 79 | 119 | 3.0 | 6.0 | 0.00 | 0.00 | 0.00 | 82 | 1012.6 |
| 20260904104204 | 79 | 120 | 3.0 | 6.0 | 0.00 | 0.00 | 0.00 | 82 | 1012.6 |
| 20260904104104 | 79 | 120 | 3.0 | 6.0 | 0.00 | 0.00 | 0.00 | 82 | 1012.6 |
| 20260904103805 | 79 | 126 | 3.0 | 6.0 | 0.00 | 0.00 | 0.00 | 82 | 1012.6 |
| 20260904103704 | 79 | 127 | 3.0 | 6.0 | 0.00 | 0.00 | 0.00 | 82 | 1012.6 |
| 20260904103604 | 79 | 127 | 3.0 | 6.0 | 0.00 | 0.00 | 0.00 | 82 | 1012.6 |
| 20260904103504 | 79 | 128 | 3.0 | 6.0 | 0.00 | 0.00 | 0.00 | 82 | 1012.5 |
| 20260904103404 | 79 | 129 | 2.0 | 8.0 | 0.00 | 0.00 | 0.00 | 82 | 1012.5 |
| 20260904103303 | 79 | 130 | 2.0 | 8.0 | 0.00 | 0.00 | 0.00 | 82 | 1012.4 |
| 20260904103204 | 79 | 129 | 2.0 | 8.0 | 0.00 | 0.00 | 0.00 | 82 | 1012.4 |
| 20260904103104 | 79 | 132 | 2.0 | 8.0 | 0.00 | 0.00 | 0.00 | 82 | 1012.4 |
| 20260904103004 | 79 | 134 | 2.0 | 8.0 | 0.00 | 0.00 | 0.00 | 82 | 1012.5 |
| 20260904102904 | 79 | 134 | 2.0 | 8.0 | 0.00 | 0.00 | 0.00 | 82 | 1012.4 |
| 20260904102805 | 79 | 139 | 2.0 | 8.0 | 0.00 | 0.00 | 0.00 | 82 | 1012.4 |
| 20260904102704 | 79 | 139 | 3.0 | 8.0 | 0.00 | 0.00 | 0.00 | 82 | 1012.5 |
| 20260904102504 | 79 | 141 | 3.0 | 8.0 | 0.00 | 0.00 | 0.00 | 82 | 1012.4 |
| 20260904102306 | 79 | 143 | 3.0 | 8.0 | 0.00 | 0.00 | 0.00 | 82 | 1012.4 |
| 20260904102204 | 79 | 145 | 3.0 | 8.0 | 0.00 | 0.00 | 0.00 | 82 | 1012.4 |
| 20260904102103 | 79 | 145 | 3.0 | 8.0 | 0.00 | 0.00 | 0.00 | 82 | 1012.4 |
| 20260904102004 | 79 | 144 | 4.0 | 8.0 | 0.00 | 0.00 | 0.00 | 82 | 1012.3 |
| 20260904101905 | 79 | 147 | 4.0 | 8.0 | 0.00 | 0.00 | 0.00 | 82 | 1012.3 |
| 20260904101806 | 79 | 146 | 4.0 | 8.0 | 0.00 | 0.00 | 0.00 | 82 | 1012.3 |
| 20260904101504 | 79 | 150 | 4.0 | 9.0 | 0.00 | 0.00 | 0.00 | 82 | 1012.3 |
| 20260904101404 | 79 | 150 | 4.0 | 9.0 | 0.00 | 0.00 | 0.00 | 82 | 1012.2 |
| 20260904101204 | 79 | 152 | 5.0 | 9.0 | 0.00 | 0.00 | 0.00 | 82 | 1012.2 |
| 20260904101104 | 79 | 152 | 5.0 | 9.0 | 0.00 | 0.00 | 0.00 | 82 | 1012.2 |
| 20260904101005 | 79 | 154 | 5.0 | 9.0 | 0.00 | 0.00 | 0.00 | 82 | 1012.1 |
| 20260904100904 | 79 | 154 | 4.0 | 9.0 | 0.00 | 0.00 | 0.00 | 82 | 1012.1 |
| 20260904100804 | 79 | 155 | 4.0 | 9.0 | 0.00 | 0.00 | 0.00 | 82 | 1012.0 |
| 20260904100604 | 79 | 159 | 4.0 | 8.0 | 0.00 | 0.00 | 0.00 | 82 | 1012.0 |
| 20260904100504 | 79 | 159 | 5.0 | 8.0 | 0.00 | 0.00 | 0.00 | 82 | 1012.1 |
| 20260904100304 | 79 | 161 | 5.0 | 8.0 | 0.00 | 0.00 | 0.00 | 82 | 1012.0 |
| 20260904100204 | 79 | 164 | 5.0 | 8.0 | 0.00 | 0.00 | 0.00 | 82 | 1012.0 |
| 20260904100104 | 79 | 165 | 5.0 | 8.0 | 0.00 | 0.00 | 0.00 | 82 | 1012.0 |
| 20260904100004 | 79 | 165 | 5.0 | 10.0 | 0.00 | 0.00 | 0.00 | 82 | 1012.0 |
| 20260904095904 | 79 | 167 | 6.0 | 10.0 | 0.00 | 0.00 | 0.00 | 82 | 1012.0 |
| 20260904095804 | 79 | 168 | 6.0 | 10.0 | 0.00 | 0.00 | 0.00 | 82 | 1012.0 |
| 20260904095705 | 79 | 169 | 6.0 | 10.0 | 0.00 | 0.00 | 0.00 | 82 | 1011.9 |
| 20260904095505 | 79 | 170 | 6.0 | 10.0 | 0.00 | 0.00 | 0.00 | 82 | 1011.9 |
| 20260904095404 | 79 | 171 | 5.0 | 10.0 | 0.00 | 0.00 | 0.00 | 82 | 1011.9 |
| 20260904095306 | 79 | 171 | 5.0 | 10.0 | 0.00 | 0.00 | 0.00 | 82 | 1012.0 |
| 20260904095205 | 79 | 171 | 5.0 | 10.0 | 0.00 | 0.00 | 0.00 | 82 | 1011.9 |
| 20260904095104 | 79 | 170 | 5.0 | 10.0 | 0.00 | 0.00 | 0.00 | 82 | 1011.9 |
| 20260904095005 | 79 | 171 | 4.0 | 8.0 | 0.00 | 0.00 | 0.00 | 82 | 1012.0 |
| 20260904094904 | 79 | 170 | 4.0 | 8.0 | 0.00 | 0.00 | 0.00 | 82 | 1012.0 |
| 20260904094805 | 79 | 167 | 4.0 | 8.0 | 0.00 | 0.00 | 0.00 | 82 | 1012.0 |
| 20260904094704 | 79 | 165 | 4.0 | 8.0 | 0.00 | 0.00 | 0.00 | 82 | 1012.0 |
| 20260904094604 | 79 | 164 | 4.0 | 8.0 | 0.00 | 0.00 | 0.00 | 82 | 1012.0 |
| 20260904094405 | 79 | 163 | 4.0 | 8.0 | 0.00 | 0.00 | 0.00 | 82 | 1012.1 |
| 20260904094304 | 79 | 163 | 4.0 | 8.0 | 0.00 | 0.00 | 0.00 | 82 | 1012.1 |
| 20260904094205 | 79 | 163 | 4.0 | 9.0 | 0.00 | 0.00 | 0.00 | 82 | 1012.1 |
| 20260904094104 | 79 | 165 | 4.0 | 9.0 | 0.00 | 0.00 | 0.00 | 82 | 1012.1 |
| 20260904094005 | 79 | 166 | 5.0 | 9.0 | 0.00 | 0.00 | 0.00 | 82 | 1012.1 |
| 20260904093904 | 79 | 167 | 5.0 | 9.0 | 0.00 | 0.00 | 0.00 | 82 | 1012.1 |
| 20260904093703 | 79 | 170 | 5.0 | 9.0 | 0.00 | 0.00 | 0.00 | 82 | 1012.0 |
| 20260904093604 | 79 | 170 | 5.0 | 9.0 | 0.00 | 0.00 | 0.00 | 82 | 1012.0 |
| 20260904093505 | 79 | 170 | 5.0 | 9.0 | 0.00 | 0.00 | 0.00 | 82 | 1012.0 |
| 20260904093404 | 79 | 169 | 6.0 | 9.0 | 0.00 | 0.00 | 0.00 | 82 | 1012.0 |
| 20260904093304 | 79 | 169 | 6.0 | 9.0 | 0.00 | 0.00 | 0.00 | 82 | 1012.0 |
| 20260904093204 | 79 | 170 | 6.0 | 9.0 | 0.00 | 0.00 | 0.00 | 82 | 1012.0 |
| 20260904093104 | 79 | 169 | 6.0 | 9.0 | 0.00 | 0.00 | 0.00 | 82 | 1012.1 |
| 20260904093004 | 79 | 169 | 6.0 | 9.0 | 0.00 | 0.00 | 0.00 | 82 | 1012.0 |
| 20260904092904 | 79 | 169 | 6.0 | 9.0 | 0.00 | 0.00 | 0.00 | 82 | 1012.1 |
| 20260904092804 | 79 | 169 | 6.0 | 9.0 | 0.00 | 0.00 | 0.00 | 82 | 1012.1 |
| 20260904092704 | 79 | 168 | 6.0 | 9.0 | 0.00 | 0.00 | 0.00 | 82 | 1012.1 |
| 20260904092604 | 79 | 169 | 6.0 | 10.0 | 0.00 | 0.00 | 0.00 | 82 | 1012.1 |
| 20260904092504 | 79 | 171 | 6.0 | 10.0 | 0.00 | 0.00 | 0.00 | 82 | 1012.0 |
| 20260904092404 | 79 | 172 | 6.0 | 10.0 | 0.00 | 0.00 | 0.00 | 82 | 1012.0 |
| 20260904092306 | 79 | 172 | 5.0 | 10.0 | 0.00 | 0.00 | 0.00 | 82 | 1012.1 |
| 20260904092204 | 79 | 173 | 5.0 | 10.0 | 0.00 | 0.00 | 0.00 | 82 | 1012.1 |
| 20260904092104 | 79 | 174 | 5.0 | 10.0 | 0.00 | 0.00 | 0.00 | 82 | 1012.1 |
| 20260904092005 | 79 | 175 | 5.0 | 10.0 | 0.00 | 0.00 | 0.00 | 82 | 1012.1 |
| 20260904091903 | 79 | 173 | 5.0 | 10.0 | 0.00 | 0.00 | 0.00 | 82 | 1012.1 |
| 20260904091804 | 79 | 174 | 5.0 | 10.0 | 0.00 | 0.00 | 0.00 | 82 | 1012.0 |
| 20260904091604 | 79 | 177 | 5.0 | 10.0 | 0.00 | 0.00 | 0.00 | 82 | 1012.1 |
| 20260904091504 | 79 | 178 | 4.0 | 10.0 | 0.00 | 0.00 | 0.00 | 82 | 1012.1 |
| 20260904091405 | 79 | 182 | 4.0 | 9.0 | 0.00 | 0.00 | 0.00 | 82 | 1012.0 |
| 20260904091304 | 79 | 184 | 4.0 | 9.0 | 0.00 | 0.00 | 0.00 | 82 | 1012.1 |
| 20260904091204 | 79 | 186 | 4.0 | 9.0 | 0.00 | 0.00 | 0.00 | 82 | 1012.1 |
| 20260904091104 | 79 | 188 | 3.0 | 9.0 | 0.00 | 0.00 | 0.00 | 82 | 1012.1 |
| 20260904091004 | 79 | 189 | 3.0 | 8.0 | 0.00 | 0.00 | 0.00 | 82 | 1012.2 |
| 20260904090904 | 79 | 192 | 4.0 | 8.0 | 0.00 | 0.00 | 0.00 | 82 | 1012.2 |
| 20260904090804 | 79 | 192 | 4.0 | 8.0 | 0.00 | 0.00 | 0.00 | 82 | 1012.2 |
| 20260904090704 | 79 | 192 | 4.0 | 12.0 | 0.00 | 0.00 | 0.00 | 82 | 1012.1 |
| 20260904090605 | 79 | 189 | 4.0 | 12.0 | 0.00 | 0.00 | 0.00 | 82 | 1012.1 |
| 20260904090404 | 79 | 185 | 4.0 | 12.0 | 0.00 | 0.00 | 0.00 | 82 | 1012.1 |
| 20260904090204 | 80 | 183 | 4.0 | 12.0 | 0.00 | 0.00 | 0.00 | 82 | 1012.1 |
| 20260904090104 | 80 | 181 | 4.0 | 12.0 | 0.00 | 0.00 | 0.00 | 82 | 1012.1 |
| 20260904085903 | 79 | 181 | 5.0 | 12.0 | 0.00 | 0.00 | 0.00 | 82 | 1012.1 |
| 20260904085804 | 79 | 181 | 5.0 | 12.0 | 0.00 | 0.00 | 0.00 | 82 | 1012.1 |
| 20260904085704 | 80 | 183 | 5.0 | 11.0 | 0.00 | 0.00 | 0.00 | 82 | 1012.1 |
| 20260904085604 | 80 | 184 | 4.0 | 8.0 | 0.00 | 0.00 | 0.00 | 82 | 1012.1 |
| 20260904085503 | 80 | 186 | 4.0 | 8.0 | 0.00 | 0.00 | 0.00 | 82 | 1012.1 |
| 20260904085404 | 80 | 186 | 4.0 | 8.0 | 0.00 | 0.00 | 0.00 | 82 | 1012.1 |
| 20260904085306 | 80 | 187 | 5.0 | 8.0 | 0.00 | 0.00 | 0.00 | 81 | 1012.1 |
| 20260904085004 | 80 | 186 | 6.0 | 10.0 | 0.00 | 0.00 | 0.00 | 81 | 1012.0 |
| 20260904084904 | 80 | 185 | 6.0 | 10.0 | 0.00 | 0.00 | 0.00 | 81 | 1012.0 |
| 20260904084805 | 80 | 186 | 6.0 | 10.0 | 0.00 | 0.00 | 0.00 | 81 | 1012.0 |
| 20260904084704 | 80 | 183 | 6.0 | 10.0 | 0.00 | 0.00 | 0.00 | 81 | 1012.0 |
| 20260904084504 | 80 | 183 | 7.0 | 10.0 | 0.00 | 0.00 | 0.00 | 81 | 1012.0 |
| 20260904084404 | 80 | 182 | 7.0 | 11.0 | 0.00 | 0.00 | 0.00 | 80 | 1012.0 |
| 20260904084304 | 80 | 181 | 6.0 | 11.0 | 0.00 | 0.00 | 0.00 | 80 | 1012.0 |
| 20260904084204 | 80 | 182 | 6.0 | 11.0 | 0.00 | 0.00 | 0.00 | 80 | 1012.0 |
| 20260904084105 | 80 | 182 | 6.0 | 11.0 | 0.00 | 0.00 | 0.00 | 80 | 1012.0 |
| 20260904084004 | 80 | 181 | 6.0 | 11.0 | 0.00 | 0.00 | 0.00 | 80 | 1012.0 |
| 20260904083804 | 80 | 178 | 6.0 | 11.0 | 0.00 | 0.00 | 0.00 | 80 | 1012.0 |
| 20260904083604 | 80 | 177 | 6.0 | 11.0 | 0.00 | 0.00 | 0.00 | 80 | 1012.0 |
| 20260904083504 | 80 | 176 | 6.0 | 11.0 | 0.00 | 0.00 | 0.00 | 80 | 1012.0 |
| 20260904083404 | 80 | 176 | 6.0 | 11.0 | 0.00 | 0.00 | 0.00 | 80 | 1012.0 |
| 20260904083303 | 80 | 175 | 6.0 | 11.0 | 0.00 | 0.00 | 0.00 | 80 | 1012.1 |
| 20260904083204 | 80 | 174 | 6.0 | 11.0 | 0.00 | 0.00 | 0.00 | 80 | 1012.1 |
| 20260904083104 | 80 | 173 | 6.0 | 11.0 | 0.00 | 0.00 | 0.00 | 80 | 1012.1 |
| 20260904082904 | 80 | 171 | 6.0 | 11.0 | 0.00 | 0.00 | 0.00 | 80 | 1012.1 |
| 20260904082804 | 80 | 170 | 6.0 | 11.0 | 0.00 | 0.00 | 0.00 | 80 | 1012.1 |
| 20260904082704 | 80 | 170 | 6.0 | 11.0 | 0.00 | 0.00 | 0.00 | 80 | 1012.1 |
| 20260904082605 | 80 | 169 | 5.0 | 9.0 | 0.00 | 0.00 | 0.00 | 80 | 1012.1 |
| 20260904082505 | 80 | 170 | 5.0 | 9.0 | 0.00 | 0.00 | 0.00 | 80 | 1012.1 |
| 20260904082404 | 80 | 171 | 5.0 | 9.0 | 0.00 | 0.00 | 0.00 | 80 | 1012.0 |
| 20260904082306 | 80 | 170 | 6.0 | 9.0 | 0.00 | 0.00 | 0.00 | 80 | 1012.0 |
| 20260904082204 | 80 | 170 | 6.0 | 11.0 | 0.00 | 0.00 | 0.00 | 80 | 1012.0 |
| 20260904082104 | 80 | 171 | 6.0 | 11.0 | 0.00 | 0.00 | 0.00 | 80 | 1012.1 |
| 20260904082004 | 80 | 171 | 6.0 | 11.0 | 0.00 | 0.00 | 0.00 | 80 | 1012.0 |
| 20260904081903 | 80 | 171 | 6.0 | 11.0 | 0.00 | 0.00 | 0.00 | 80 | 1012.0 |
| 20260904081704 | 80 | 170 | 6.0 | 11.0 | 0.00 | 0.00 | 0.00 | 80 | 1012.1 |
| 20260904081604 | 80 | 170 | 6.0 | 11.0 | 0.00 | 0.00 | 0.00 | 80 | 1012.1 |
| 20260904081504 | 80 | 171 | 6.0 | 11.0 | 0.00 | 0.00 | 0.00 | 80 | 1012.1 |
| 20260904081404 | 80 | 169 | 6.0 | 11.0 | 0.00 | 0.00 | 0.00 | 80 | 1012.2 |
| 20260904081304 | 80 | 169 | 5.0 | 11.0 | 0.00 | 0.00 | 0.00 | 80 | 1012.2 |
| 20260904081204 | 80 | 169 | 5.0 | 10.0 | 0.00 | 0.00 | 0.00 | 80 | 1012.2 |
| 20260904081005 | 80 | 166 | 5.0 | 10.0 | 0.00 | 0.00 | 0.00 | 80 | 1012.2 |
| 20260904080705 | 80 | 164 | 5.0 | 10.0 | 0.00 | 0.00 | 0.00 | 80 | 1012.2 |
| 20260904080604 | 80 | 162 | 5.0 | 10.0 | 0.00 | 0.00 | 0.00 | 80 | 1012.2 |
| 20260904080504 | 80 | 157 | 5.0 | 10.0 | 0.00 | 0.00 | 0.00 | 80 | 1012.2 |
| 20260904080404 | 80 | 156 | 5.0 | 10.0 | 0.00 | 0.00 | 0.00 | 80 | 1012.2 |
| 20260904080304 | 80 | 155 | 5.0 | 9.0 | 0.00 | 0.00 | 0.00 | 80 | 1012.2 |
| 20260904080104 | 80 | 154 | 5.0 | 9.0 | 0.00 | 0.00 | 0.00 | 80 | 1012.2 |
| 20260904080004 | 80 | 154 | 5.0 | 9.0 | 0.00 | 0.00 | 0.00 | 80 | 1012.2 |
| 20260904075804 | 80 | 151 | 5.0 | 9.0 | 0.00 | 0.00 | 0.00 | 80 | 1012.1 |
| 20260904075704 | 80 | 153 | 5.0 | 8.0 | 0.00 | 0.00 | 0.00 | 80 | 1012.1 |
| 20260904075605 | 80 | 154 | 5.0 | 8.0 | 0.00 | 0.00 | 0.00 | 80 | 1012.1 |
| 20260904075504 | 80 | 156 | 5.0 | 8.0 | 0.00 | 0.00 | 0.00 | 80 | 1012.1 |
| 20260904075404 | 80 | 157 | 5.0 | 8.0 | 0.00 | 0.00 | 0.00 | 80 | 1012.1 |
| 20260904075306 | 80 | 159 | 5.0 | 9.0 | 0.00 | 0.00 | 0.00 | 80 | 1012.2 |
| 20260904075203 | 80 | 161 | 5.0 | 9.0 | 0.00 | 0.00 | 0.00 | 80 | 1012.2 |
| 20260904075104 | 80 | 161 | 5.0 | 9.0 | 0.00 | 0.00 | 0.00 | 80 | 1012.2 |
| 20260904075004 | 80 | 161 | 5.0 | 11.0 | 0.00 | 0.00 | 0.00 | 80 | 1012.2 |
| 20260904074904 | 80 | 162 | 6.0 | 11.0 | 0.00 | 0.00 | 0.00 | 80 | 1012.2 |
| 20260904074804 | 80 | 162 | 6.0 | 11.0 | 0.00 | 0.00 | 0.00 | 80 | 1012.2 |
| 20260904074704 | 80 | 163 | 6.0 | 12.0 | 0.00 | 0.00 | 0.00 | 80 | 1012.2 |
| 20260904074604 | 80 | 164 | 6.0 | 12.0 | 0.00 | 0.00 | 0.00 | 80 | 1012.1 |
| 20260904074504 | 80 | 164 | 6.0 | 12.0 | 0.00 | 0.00 | 0.00 | 80 | 1012.1 |
| 20260904074404 | 80 | 164 | 6.0 | 12.0 | 0.00 | 0.00 | 0.00 | 80 | 1012.2 |
| 20260904074305 | 80 | 163 | 6.0 | 12.0 | 0.00 | 0.00 | 0.00 | 80 | 1012.1 |
| 20260904074204 | 80 | 164 | 6.0 | 12.0 | 0.00 | 0.00 | 0.00 | 80 | 1012.1 |
| 20260904074104 | 80 | 166 | 6.0 | 12.0 | 0.00 | 0.00 | 0.00 | 80 | 1012.1 |
| 20260904073804 | 80 | 168 | 7.0 | 12.0 | 0.00 | 0.00 | 0.00 | 80 | 1012.2 |
| 20260904073703 | 80 | 168 | 7.0 | 11.0 | 0.00 | 0.00 | 0.00 | 80 | 1012.2 |
| 20260904073604 | 80 | 170 | 7.0 | 11.0 | 0.00 | 0.00 | 0.00 | 80 | 1012.2 |
| 20260904073503 | 80 | 171 | 7.0 | 11.0 | 0.00 | 0.00 | 0.00 | 80 | 1012.3 |
| 20260904073404 | 80 | 172 | 7.0 | 11.0 | 0.00 | 0.00 | 0.00 | 80 | 1012.2 |
| 20260904073304 | 80 | 173 | 7.0 | 11.0 | 0.00 | 0.00 | 0.00 | 80 | 1012.2 |
| 20260904073204 | 80 | 173 | 7.0 | 11.0 | 0.00 | 0.00 | 0.00 | 80 | 1012.2 |
| 20260904073103 | 80 | 171 | 7.0 | 11.0 | 0.00 | 0.00 | 0.00 | 80 | 1012.2 |
| 20260904073004 | 80 | 172 | 7.0 | 11.0 | 0.00 | 0.00 | 0.00 | 80 | 1012.2 |
| 20260904072904 | 80 | 172 | 7.0 | 11.0 | 0.00 | 0.00 | 0.00 | 80 | 1012.2 |
| 20260904072804 | 80 | 172 | 7.0 | 11.0 | 0.00 | 0.00 | 0.00 | 80 | 1012.2 |
| 20260904072703 | 80 | 173 | 6.0 | 11.0 | 0.00 | 0.00 | 0.00 | 80 | 1012.2 |
| 20260904072604 | 80 | 172 | 6.0 | 11.0 | 0.00 | 0.00 | 0.00 | 80 | 1012.2 |
| 20260904072404 | 80 | 170 | 6.0 | 11.0 | 0.00 | 0.00 | 0.00 | 80 | 1012.2 |
| 20260904072306 | 80 | 171 | 6.0 | 11.0 | 0.00 | 0.00 | 0.00 | 80 | 1012.2 |
| 20260904072104 | 80 | 173 | 5.0 | 9.0 | 0.00 | 0.00 | 0.00 | 80 | 1012.2 |
| 20260904072004 | 80 | 173 | 5.0 | 9.0 | 0.00 | 0.00 | 0.00 | 80 | 1012.2 |
| 20260904071903 | 80 | 171 | 5.0 | 9.0 | 0.00 | 0.00 | 0.00 | 80 | 1012.2 |
| 20260904071804 | 80 | 173 | 5.0 | 10.0 | 0.00 | 0.00 | 0.00 | 80 | 1012.2 |
| 20260904071704 | 80 | 173 | 5.0 | 10.0 | 0.00 | 0.00 | 0.00 | 80 | 1012.3 |
| 20260904071403 | 80 | 171 | 5.0 | 10.0 | 0.00 | 0.00 | 0.00 | 80 | 1012.3 |
| 20260904071304 | 80 | 169 | 5.0 | 10.0 | 0.00 | 0.00 | 0.00 | 80 | 1012.3 |
| 20260904071203 | 80 | 168 | 5.0 | 10.0 | 0.00 | 0.00 | 0.00 | 80 | 1012.3 |
| 20260904071104 | 80 | 167 | 5.0 | 10.0 | 0.00 | 0.00 | 0.00 | 80 | 1012.2 |
| 20260904071006 | 80 | 167 | 5.0 | 10.0 | 0.00 | 0.00 | 0.00 | 80 | 1012.3 |
| 20260904070904 | 80 | 166 | 5.0 | 10.0 | 0.00 | 0.00 | 0.00 | 80 | 1012.3 |
| 20260904070804 | 80 | 164 | 5.0 | 10.0 | 0.00 | 0.00 | 0.00 | 80 | 1012.3 |
| 20260904070704 | 80 | 164 | 6.0 | 11.0 | 0.00 | 0.00 | 0.00 | 80 | 1012.2 |
| 20260904070604 | 80 | 164 | 6.0 | 11.0 | 0.00 | 0.00 | 0.00 | 80 | 1012.3 |
| 20260904070503 | 80 | 161 | 6.0 | 11.0 | 0.00 | 0.00 | 0.00 | 80 | 1012.2 |
| 20260904070303 | 80 | 163 | 6.0 | 11.0 | 0.00 | 0.00 | 0.00 | 79 | 1012.3 |
| 20260904070204 | 80 | 162 | 6.0 | 11.0 | 0.00 | 0.00 | 0.00 | 79 | 1012.3 |
| 20260904070104 | 80 | 163 | 5.0 | 11.0 | 0.00 | 0.00 | 0.00 | 79 | 1012.3 |
| 20260904070004 | 80 | 163 | 5.0 | 11.0 | 0.00 | 0.00 | 0.00 | 79 | 1012.3 |
| 20260904065904 | 80 | 165 | 5.0 | 11.0 | 0.00 | 0.00 | 0.00 | 79 | 1012.3 |
| 20260904065804 | 80 | 166 | 5.0 | 11.0 | 0.00 | 0.00 | 0.00 | 79 | 1012.3 |
| 20260904065704 | 80 | 166 | 5.0 | 9.0 | 0.00 | 0.00 | 0.00 | 79 | 1012.4 |
| 20260904065603 | 80 | 165 | 5.0 | 9.0 | 0.00 | 0.00 | 0.00 | 79 | 1012.4 |
| 20260904065504 | 80 | 166 | 5.0 | 9.0 | 0.00 | 0.00 | 0.00 | 79 | 1012.4 |
| 20260904065404 | 80 | 166 | 5.0 | 9.0 | 0.00 | 0.00 | 0.00 | 79 | 1012.4 |
| 20260904065306 | 80 | 166 | 5.0 | 9.0 | 0.00 | 0.00 | 0.00 | 79 | 1012.5 |
| 20260904065204 | 80 | 166 | 6.0 | 9.0 | 0.00 | 0.00 | 0.00 | 79 | 1012.5 |
| 20260904065104 | 80 | 166 | 6.0 | 10.0 | 0.00 | 0.00 | 0.00 | 79 | 1012.4 |
| 20260904065004 | 80 | 165 | 6.0 | 10.0 | 0.00 | 0.00 | 0.00 | 79 | 1012.4 |
| 20260904064903 | 80 | 164 | 6.0 | 10.0 | 0.00 | 0.00 | 0.00 | 79 | 1012.5 |
| 20260904064804 | 80 | 163 | 6.0 | 10.0 | 0.00 | 0.00 | 0.00 | 79 | 1012.4 |
| 20260904064703 | 80 | 161 | 6.0 | 10.0 | 0.00 | 0.00 | 0.00 | 79 | 1012.4 |
| 20260904064504 | 80 | 160 | 5.0 | 10.0 | 0.00 | 0.00 | 0.00 | 79 | 1012.4 |
| 20260904064404 | 80 | 160 | 5.0 | 10.0 | 0.00 | 0.00 | 0.00 | 79 | 1012.5 |
| 20260904064304 | 80 | 159 | 5.0 | 10.0 | 0.00 | 0.00 | 0.00 | 79 | 1012.5 |
| 20260904064103 | 80 | 158 | 5.0 | 9.0 | 0.00 | 0.00 | 0.00 | 79 | 1012.5 |
| 20260904064004 | 80 | 157 | 5.0 | 8.0 | 0.00 | 0.00 | 0.00 | 79 | 1012.5 |
| 20260904063905 | 80 | 157 | 5.0 | 9.0 | 0.00 | 0.00 | 0.00 | 79 | 1012.5 |
| 20260904063803 | 80 | 155 | 5.0 | 12.0 | 0.00 | 0.00 | 0.00 | 79 | 1012.5 |
| 20260904063705 | 80 | 157 | 5.0 | 12.0 | 0.00 | 0.00 | 0.00 | 79 | 1012.5 |
| 20260904063504 | 80 | 158 | 5.0 | 12.0 | 0.00 | 0.00 | 0.00 | 79 | 1012.5 |
| 20260904063403 | 80 | 158 | 5.0 | 12.0 | 0.00 | 0.00 | 0.00 | 79 | 1012.5 |
| 20260904063204 | 80 | 157 | 5.0 | 12.0 | 0.00 | 0.00 | 0.00 | 79 | 1012.5 |
| 20260904063105 | 80 | 156 | 5.0 | 12.0 | 0.00 | 0.00 | 0.00 | 79 | 1012.5 |
| 20260904063004 | 80 | 157 | 6.0 | 12.0 | 0.00 | 0.00 | 0.00 | 79 | 1012.5 |
| 20260904062904 | 80 | 154 | 6.0 | 13.0 | 0.00 | 0.00 | 0.00 | 79 | 1012.5 |
| 20260904062804 | 80 | 155 | 6.0 | 13.0 | 0.00 | 0.00 | 0.00 | 79 | 1012.5 |
| 20260904062605 | 80 | 154 | 6.0 | 13.0 | 0.00 | 0.00 | 0.00 | 79 | 1012.5 |
| 20260904062405 | 80 | 155 | 7.0 | 13.0 | 0.00 | 0.00 | 0.00 | 79 | 1012.4 |
| 20260904062306 | 80 | 155 | 7.0 | 13.0 | 0.00 | 0.00 | 0.00 | 79 | 1012.4 |
| 20260904062204 | 80 | 154 | 7.0 | 13.0 | 0.00 | 0.00 | 0.00 | 79 | 1012.4 |
| 20260904062103 | 80 | 154 | 7.0 | 13.0 | 0.00 | 0.00 | 0.00 | 79 | 1012.4 |
| 20260904062004 | 80 | 155 | 7.0 | 14.0 | 0.00 | 0.00 | 0.00 | 79 | 1012.4 |
| 20260904061904 | 80 | 157 | 7.0 | 14.0 | 0.00 | 0.00 | 0.00 | 79 | 1012.4 |
| 20260904061804 | 80 | 156 | 7.0 | 14.0 | 0.00 | 0.00 | 0.00 | 79 | 1012.4 |
| 20260904061704 | 80 | 156 | 6.0 | 14.0 | 0.00 | 0.00 | 0.00 | 79 | 1012.4 |
| 20260904061604 | 80 | 156 | 7.0 | 14.0 | 0.00 | 0.00 | 0.00 | 79 | 1012.4 |
| 20260904061504 | 80 | 157 | 7.0 | 14.0 | 0.00 | 0.00 | 0.00 | 79 | 1012.4 |
| 20260904061403 | 80 | 156 | 7.0 | 14.0 | 0.00 | 0.00 | 0.00 | 79 | 1012.4 |
| 20260904061204 | 80 | 156 | 6.0 | 14.0 | 0.00 | 0.00 | 0.00 | 79 | 1012.4 |
| 20260904061103 | 80 | 156 | 6.0 | 14.0 | 0.00 | 0.00 | 0.00 | 79 | 1012.4 |
| 20260904061004 | 80 | 154 | 6.0 | 12.0 | 0.00 | 0.00 | 0.00 | 79 | 1012.4 |
| 20260904060904 | 80 | 153 | 6.0 | 12.0 | 0.00 | 0.00 | 0.00 | 79 | 1012.4 |
| 20260904060804 | 80 | 154 | 7.0 | 15.0 | 0.00 | 0.00 | 0.00 | 79 | 1012.4 |
| 20260904060303 | 80 | 154 | 7.0 | 15.0 | 0.00 | 0.00 | 0.00 | 79 | 1012.4 |
| 20260904060104 | 80 | 153 | 7.0 | 15.0 | 0.00 | 0.00 | 0.00 | 79 | 1012.4 |
| 20260904055904 | 80 | 154 | 6.0 | 15.0 | 0.00 | 0.00 | 0.00 | 79 | 1012.3 |
| 20260904055704 | 80 | 152 | 6.0 | 13.0 | 0.00 | 0.00 | 0.00 | 79 | 1012.4 |
| 20260904055604 | 80 | 154 | 6.0 | 13.0 | 0.00 | 0.00 | 0.00 | 79 | 1012.4 |
| 20260904055505 | 80 | 153 | 5.0 | 13.0 | 0.00 | 0.00 | 0.00 | 79 | 1012.4 |
| 20260904055306 | 80 | 152 | 5.0 | 11.0 | 0.00 | 0.00 | 0.00 | 79 | 1012.4 |
| 20260904055204 | 80 | 153 | 5.0 | 11.0 | 0.00 | 0.00 | 0.00 | 79 | 1012.3 |
| 20260904055105 | 80 | 154 | 6.0 | 10.0 | 0.00 | 0.00 | 0.00 | 79 | 1012.3 |
| 20260904055005 | 80 | 154 | 6.0 | 14.0 | 0.00 | 0.00 | 0.00 | 79 | 1012.3 |
| 20260904054904 | 80 | 156 | 6.0 | 14.0 | 0.00 | 0.00 | 0.00 | 79 | 1012.3 |
| 20260904054803 | 80 | 157 | 7.0 | 14.0 | 0.00 | 0.00 | 0.00 | 79 | 1012.3 |
| 20260904054704 | 80 | 155 | 7.0 | 14.0 | 0.00 | 0.00 | 0.00 | 79 | 1012.3 |
| 20260904054603 | 80 | 154 | 7.0 | 14.0 | 0.00 | 0.00 | 0.00 | 79 | 1012.3 |
| 20260904054404 | 80 | 154 | 7.0 | 14.0 | 0.00 | 0.00 | 0.00 | 79 | 1012.3 |
| 20260904054303 | 80 | 152 | 7.0 | 14.0 | 0.00 | 0.00 | 0.00 | 79 | 1012.3 |
| 20260904054104 | 80 | 151 | 7.0 | 14.0 | 0.00 | 0.00 | 0.00 | 79 | 1012.3 |
| 20260904054004 | 80 | 150 | 7.0 | 12.0 | 0.00 | 0.00 | 0.00 | 79 | 1012.3 |
| 20260904053904 | 80 | 149 | 7.0 | 12.0 | 0.00 | 0.00 | 0.00 | 79 | 1012.3 |
| 20260904053804 | 80 | 148 | 7.0 | 13.0 | 0.00 | 0.00 | 0.00 | 79 | 1012.3 |
| 20260904053704 | 80 | 148 | 7.0 | 13.0 | 0.00 | 0.00 | 0.00 | 79 | 1012.4 |
| 20260904053503 | 80 | 148 | 7.0 | 13.0 | 0.00 | 0.00 | 0.00 | 79 | 1012.3 |
| 20260904053303 | 80 | 148 | 7.0 | 13.0 | 0.00 | 0.00 | 0.00 | 79 | 1012.4 |
| 20260904053204 | 80 | 148 | 7.0 | 13.0 | 0.00 | 0.00 | 0.00 | 79 | 1012.4 |
| 20260904053104 | 80 | 149 | 7.0 | 13.0 | 0.00 | 0.00 | 0.00 | 79 | 1012.3 |
| 20260904052903 | 80 | 148 | 7.0 | 13.0 | 0.00 | 0.00 | 0.00 | 79 | 1012.3 |
| 20260904052804 | 80 | 148 | 7.0 | 13.0 | 0.00 | 0.00 | 0.00 | 79 | 1012.3 |
| 20260904052703 | 80 | 148 | 7.0 | 13.0 | 0.00 | 0.00 | 0.00 | 79 | 1012.3 |
| 20260904052604 | 80 | 146 | 7.0 | 13.0 | 0.00 | 0.00 | 0.00 | 79 | 1012.3 |
| 20260904052503 | 80 | 147 | 7.0 | 13.0 | 0.00 | 0.00 | 0.00 | 79 | 1012.3 |
| 20260904052204 | 80 | 144 | 6.0 | 11.0 | 0.00 | 0.00 | 0.00 | 78 | 1012.3 |
| 20260904052104 | 80 | 144 | 6.0 | 11.0 | 0.00 | 0.00 | 0.00 | 78 | 1012.3 |
| 20260904052004 | 80 | 144 | 6.0 | 12.0 | 0.00 | 0.00 | 0.00 | 78 | 1012.3 |
| 20260904051804 | 80 | 143 | 6.0 | 13.0 | 0.00 | 0.00 | 0.00 | 78 | 1012.3 |
| 20260904051704 | 80 | 143 | 6.0 | 13.0 | 0.00 | 0.00 | 0.00 | 78 | 1012.3 |
| 20260904051604 | 80 | 144 | 6.0 | 13.0 | 0.00 | 0.00 | 0.00 | 78 | 1012.3 |
| 20260904051504 | 80 | 145 | 6.0 | 13.0 | 0.00 | 0.00 | 0.00 | 78 | 1012.3 |
| 20260904051410 | 80 | 144 | 6.0 | 13.0 | 0.00 | 0.00 | 0.00 | 78 | 1012.3 |
| 20260904051304 | 80 | 145 | 6.0 | 13.0 | 0.00 | 0.00 | 0.00 | 78 | 1012.3 |
| 20260904051203 | 80 | 146 | 6.0 | 13.0 | 0.00 | 0.00 | 0.00 | 78 | 1012.3 |
| 20260904051104 | 80 | 146 | 6.0 | 13.0 | 0.00 | 0.00 | 0.00 | 78 | 1012.3 |
| 20260904051004 | 80 | 146 | 6.0 | 13.0 | 0.00 | 0.00 | 0.00 | 78 | 1012.3 |
| 20260904050904 | 80 | 147 | 6.0 | 13.0 | 0.00 | 0.00 | 0.00 | 78 | 1012.3 |
| 20260904050803 | 80 | 147 | 5.0 | 11.0 | 0.00 | 0.00 | 0.00 | 78 | 1012.3 |
| 20260904050704 | 80 | 146 | 5.0 | 10.0 | 0.00 | 0.00 | 0.00 | 78 | 1012.3 |
| 20260904050603 | 80 | 145 | 5.0 | 10.0 | 0.00 | 0.00 | 0.00 | 78 | 1012.3 |
| 20260904050504 | 80 | 145 | 5.0 | 10.0 | 0.00 | 0.00 | 0.00 | 78 | 1012.3 |
| 20260904050403 | 80 | 146 | 5.0 | 11.0 | 0.00 | 0.00 | 0.00 | 78 | 1012.3 |
| 20260904050304 | 80 | 146 | 5.0 | 11.0 | 0.00 | 0.00 | 0.00 | 78 | 1012.3 |
| 20260904050204 | 80 | 145 | 5.0 | 11.0 | 0.00 | 0.00 | 0.00 | 78 | 1012.2 |
| 20260904050005 | 80 | 143 | 5.0 | 12.0 | 0.00 | 0.00 | 0.00 | 77 | 1012.2 |
| 20260904045904 | 80 | 143 | 5.0 | 12.0 | 0.00 | 0.00 | 0.00 | 77 | 1012.2 |
| 20260904045804 | 80 | 143 | 5.0 | 13.0 | 0.00 | 0.00 | 0.00 | 77 | 1012.2 |
| 20260904045604 | 80 | 142 | 5.0 | 13.0 | 0.00 | 0.00 | 0.00 | 77 | 1012.2 |
| 20260904045504 | 80 | 141 | 5.0 | 13.0 | 0.00 | 0.00 | 0.00 | 77 | 1012.2 |
| 20260904045306 | 80 | 138 | 5.0 | 13.0 | 0.00 | 0.00 | 0.00 | 77 | 1012.2 |
| 20260904045104 | 80 | 139 | 5.0 | 13.0 | 0.00 | 0.00 | 0.00 | 77 | 1012.1 |
| 20260904045003 | 80 | 141 | 6.0 | 13.0 | 0.00 | 0.00 | 0.00 | 77 | 1012.1 |
| 20260904044904 | 80 | 141 | 6.0 | 13.0 | 0.00 | 0.00 | 0.00 | 77 | 1012.1 |
| 20260904044804 | 80 | 142 | 6.0 | 12.0 | 0.00 | 0.00 | 0.00 | 77 | 1012.1 |
| 20260904044704 | 80 | 142 | 6.0 | 12.0 | 0.00 | 0.00 | 0.00 | 77 | 1012.1 |
| 20260904044404 | 80 | 143 | 6.0 | 12.0 | 0.00 | 0.00 | 0.00 | 76 | 1012.1 |
| 20260904044304 | 80 | 143 | 6.0 | 12.0 | 0.00 | 0.00 | 0.00 | 76 | 1012.1 |
| 20260904044204 | 80 | 143 | 6.0 | 12.0 | 0.00 | 0.00 | 0.00 | 76 | 1012.1 |
| 20260904044004 | 80 | 142 | 6.0 | 12.0 | 0.00 | 0.00 | 0.00 | 76 | 1012.0 |
| 20260904043904 | 80 | 142 | 6.0 | 12.0 | 0.00 | 0.00 | 0.00 | 76 | 1012.1 |
| 20260904043604 | 80 | 140 | 6.0 | 12.0 | 0.00 | 0.00 | 0.00 | 76 | 1012.1 |
| 20260904043404 | 80 | 141 | 6.0 | 12.0 | 0.00 | 0.00 | 0.00 | 76 | 1012.1 |
| 20260904043304 | 80 | 140 | 6.0 | 12.0 | 0.00 | 0.00 | 0.00 | 76 | 1012.1 |
| 20260904043204 | 80 | 141 | 6.0 | 12.0 | 0.00 | 0.00 | 0.00 | 76 | 1012.1 |
| 20260904043104 | 80 | 140 | 7.0 | 15.0 | 0.00 | 0.00 | 0.00 | 76 | 1012.1 |
| 20260904043004 | 80 | 139 | 6.0 | 15.0 | 0.00 | 0.00 | 0.00 | 76 | 1012.1 |
| 20260904042705 | 80 | 140 | 7.0 | 15.0 | 0.00 | 0.00 | 0.00 | 75 | 1012.1 |
| 20260904042603 | 80 | 140 | 7.0 | 15.0 | 0.00 | 0.00 | 0.00 | 75 | 1012.1 |
| 20260904042505 | 80 | 140 | 7.0 | 15.0 | 0.00 | 0.00 | 0.00 | 75 | 1012.1 |
| 20260904042404 | 80 | 139 | 7.0 | 15.0 | 0.00 | 0.00 | 0.00 | 75 | 1012.0 |
| 20260904042204 | 80 | 140 | 6.0 | 15.0 | 0.00 | 0.00 | 0.00 | 75 | 1012.0 |
| 20260904042104 | 80 | 141 | 6.0 | 12.0 | 0.00 | 0.00 | 0.00 | 75 | 1012.0 |
| 20260904041904 | 80 | 143 | 7.0 | 12.0 | 0.00 | 0.00 | 0.00 | 75 | 1012.0 |
| 20260904041805 | 80 | 144 | 7.0 | 12.0 | 0.00 | 0.00 | 0.00 | 75 | 1012.0 |
| 20260904041603 | 80 | 146 | 6.0 | 12.0 | 0.00 | 0.00 | 0.00 | 74 | 1012.0 |
| 20260904041504 | 80 | 146 | 6.0 | 12.0 | 0.00 | 0.00 | 0.00 | 74 | 1012.0 |
| 20260904041404 | 80 | 143 | 6.0 | 12.0 | 0.00 | 0.00 | 0.00 | 74 | 1012.0 |
| 20260904041104 | 80 | 143 | 6.0 | 12.0 | 0.00 | 0.00 | 0.00 | 74 | 1012.0 |
| 20260904041004 | 80 | 143 | 6.0 | 12.0 | 0.00 | 0.00 | 0.00 | 74 | 1012.1 |
| 20260904040904 | 80 | 141 | 6.0 | 12.0 | 0.00 | 0.00 | 0.00 | 74 | 1012.1 |
| 20260904040804 | 80 | 139 | 6.0 | 12.0 | 0.00 | 0.00 | 0.00 | 74 | 1012.0 |
| 20260904040704 | 80 | 138 | 6.0 | 13.0 | 0.00 | 0.00 | 0.00 | 74 | 1012.1 |
| 20260904040603 | 80 | 136 | 6.0 | 13.0 | 0.00 | 0.00 | 0.00 | 74 | 1012.1 |
| 20260904040403 | 80 | 139 | 6.0 | 13.0 | 0.00 | 0.00 | 0.00 | 74 | 1012.0 |
| 20260904040304 | 80 | 139 | 5.0 | 13.0 | 0.00 | 0.00 | 0.00 | 73 | 1012.1 |
| 20260904040203 | 80 | 138 | 5.0 | 13.0 | 0.00 | 0.00 | 0.00 | 73 | 1012.1 |
| 20260904040104 | 80 | 139 | 5.0 | 13.0 | 0.00 | 0.00 | 0.00 | 73 | 1012.0 |
| 20260904035904 | 80 | 138 | 5.0 | 13.0 | 0.00 | 0.00 | 0.00 | 73 | 1012.0 |
| 20260904035803 | 80 | 140 | 5.0 | 13.0 | 0.00 | 0.00 | 0.00 | 73 | 1012.0 |
| 20260904035704 | 80 | 139 | 5.0 | 13.0 | 0.00 | 0.00 | 0.00 | 73 | 1012.0 |
| 20260904035603 | 80 | 141 | 5.0 | 13.0 | 0.00 | 0.00 | 0.00 | 73 | 1012.1 |
| 20260904035403 | 80 | 140 | 6.0 | 10.0 | 0.00 | 0.00 | 0.00 | 73 | 1012.1 |
| 20260904035203 | 80 | 140 | 6.0 | 10.0 | 0.00 | 0.00 | 0.00 | 73 | 1012.1 |
| 20260904035103 | 80 | 140 | 6.0 | 11.0 | 0.00 | 0.00 | 0.00 | 73 | 1012.1 |
| 20260904034903 | 80 | 141 | 7.0 | 12.0 | 0.00 | 0.00 | 0.00 | 73 | 1012.1 |
| 20260904034804 | 81 | 141 | 7.0 | 12.0 | 0.00 | 0.00 | 0.00 | 73 | 1012.1 |
| 20260904034703 | 81 | 141 | 7.0 | 12.0 | 0.00 | 0.00 | 0.00 | 72 | 1012.1 |
| 20260904034604 | 81 | 141 | 7.0 | 12.0 | 0.00 | 0.00 | 0.00 | 72 | 1012.2 |
| 20260904034504 | 81 | 141 | 7.0 | 13.0 | 0.00 | 0.00 | 0.00 | 72 | 1012.1 |
| 20260904034403 | 81 | 140 | 7.0 | 13.0 | 0.00 | 0.00 | 0.00 | 72 | 1012.2 |
| 20260904034303 | 81 | 140 | 7.0 | 13.0 | 0.00 | 0.00 | 0.00 | 72 | 1012.1 |
| 20260904034104 | 81 | 139 | 7.0 | 13.0 | 0.00 | 0.00 | 0.00 | 72 | 1012.1 |
| 20260904034004 | 81 | 138 | 6.0 | 14.0 | 0.00 | 0.00 | 0.00 | 72 | 1012.1 |
| 20260904033904 | 81 | 137 | 6.0 | 14.0 | 0.00 | 0.00 | 0.00 | 72 | 1012.1 |
| 20260904033803 | 81 | 137 | 7.0 | 14.0 | 0.00 | 0.00 | 0.00 | 72 | 1012.1 |
| 20260904033503 | 81 | 139 | 6.0 | 14.0 | 0.00 | 0.00 | 0.00 | 72 | 1012.1 |
| 20260904033404 | 81 | 140 | 6.0 | 14.0 | 0.00 | 0.00 | 0.00 | 72 | 1012.1 |
| 20260904033303 | 81 | 140 | 6.0 | 14.0 | 0.00 | 0.00 | 0.00 | 71 | 1012.1 |
| 20260904033204 | 81 | 139 | 6.0 | 14.0 | 0.00 | 0.00 | 0.00 | 71 | 1012.0 |
| 20260904032903 | 81 | 145 | 7.0 | 13.0 | 0.00 | 0.00 | 0.00 | 71 | 1012.1 |
| 20260904032804 | 81 | 147 | 7.0 | 13.0 | 0.00 | 0.00 | 0.00 | 71 | 1012.0 |
| 20260904032703 | 81 | 146 | 6.0 | 13.0 | 0.00 | 0.00 | 0.00 | 71 | 1012.0 |
| 20260904032604 | 81 | 147 | 7.0 | 13.0 | 0.00 | 0.00 | 0.00 | 71 | 1012.0 |
| 20260904032504 | 81 | 148 | 7.0 | 13.0 | 0.00 | 0.00 | 0.00 | 71 | 1012.0 |
| 20260904032403 | 81 | 148 | 7.0 | 15.0 | 0.00 | 0.00 | 0.00 | 71 | 1012.0 |
| 20260904032305 | 81 | 147 | 7.0 | 15.0 | 0.00 | 0.00 | 0.00 | 71 | 1011.9 |
| 20260904032204 | 81 | 148 | 7.0 | 15.0 | 0.00 | 0.00 | 0.00 | 71 | 1012.0 |
| 20260904032103 | 81 | 146 | 7.0 | 15.0 | 0.00 | 0.00 | 0.00 | 71 | 1012.0 |
| 20260904032004 | 81 | 146 | 7.0 | 15.0 | 0.00 | 0.00 | 0.00 | 71 | 1012.0 |
| 20260904031904 | 81 | 145 | 7.0 | 15.0 | 0.00 | 0.00 | 0.00 | 70 | 1012.0 |
| 20260904031804 | 81 | 144 | 7.0 | 15.0 | 0.00 | 0.00 | 0.00 | 70 | 1012.0 |
| 20260904031704 | 81 | 145 | 6.0 | 15.0 | 0.00 | 0.00 | 0.00 | 70 | 1011.9 |
| 20260904031604 | 81 | 145 | 6.0 | 15.0 | 0.00 | 0.00 | 0.00 | 70 | 1012.0 |
| 20260904031503 | 81 | 143 | 6.0 | 15.0 | 0.00 | 0.00 | 0.00 | 70 | 1012.0 |
| 20260904031404 | 81 | 142 | 6.0 | 12.0 | 0.00 | 0.00 | 0.00 | 70 | 1012.0 |
| 20260904031303 | 81 | 142 | 6.0 | 12.0 | 0.00 | 0.00 | 0.00 | 70 | 1012.0 |
| 20260904031204 | 81 | 142 | 6.0 | 12.0 | 0.00 | 0.00 | 0.00 | 70 | 1012.0 |
| 20260904031104 | 81 | 143 | 6.0 | 12.0 | 0.00 | 0.00 | 0.00 | 70 | 1012.0 |
| 20260904030905 | 82 | 146 | 7.0 | 14.0 | 0.00 | 0.00 | 0.00 | 69 | 1011.9 |
| 20260904030804 | 82 | 144 | 7.0 | 14.0 | 0.00 | 0.00 | 0.00 | 69 | 1011.9 |
| 20260904030703 | 82 | 144 | 7.0 | 14.0 | 0.00 | 0.00 | 0.00 | 69 | 1011.8 |
| 20260904030606 | 82 | 143 | 7.0 | 14.0 | 0.00 | 0.00 | 0.00 | 69 | 1011.8 |
| 20260904030405 | 82 | 143 | 7.0 | 14.0 | 0.00 | 0.00 | 0.00 | 69 | 1011.8 |
| 20260904030306 | 82 | 144 | 7.0 | 14.0 | 0.00 | 0.00 | 0.00 | 69 | 1011.7 |
| 20260904030106 | 82 | 145 | 6.0 | 14.0 | 0.00 | 0.00 | 0.00 | 69 | 1011.7 |
| 20260904030005 | 82 | 143 | 6.0 | 14.0 | 0.00 | 0.00 | 0.00 | 69 | 1011.7 |
| 20260904025906 | 82 | 139 | 6.0 | 14.0 | 0.00 | 0.00 | 0.00 | 69 | 1011.7 |
| 20260904025805 | 82 | 139 | 6.0 | 14.0 | 0.00 | 0.00 | 0.00 | 69 | 1011.7 |
| 20260904025706 | 82 | 138 | 6.0 | 14.0 | 0.00 | 0.00 | 0.00 | 69 | 1011.6 |
| 20260904025605 | 82 | 139 | 6.0 | 14.0 | 0.00 | 0.00 | 0.00 | 69 | 1011.7 |
| 20260904025406 | 82 | 139 | 6.0 | 12.0 | 0.00 | 0.00 | 0.00 | 68 | 1011.7 |
| 20260904025105 | 82 | 136 | 7.0 | 13.0 | 0.00 | 0.00 | 0.00 | 68 | 1011.6 |
| 20260904025006 | 82 | 136 | 7.0 | 13.0 | 0.00 | 0.00 | 0.00 | 68 | 1011.7 |
| 20260904024905 | 82 | 138 | 7.0 | 13.0 | 0.00 | 0.00 | 0.00 | 68 | 1011.6 |
| 20260904024606 | 82 | 139 | 7.0 | 13.0 | 0.00 | 0.00 | 0.00 | 68 | 1011.6 |
| 20260904024406 | 82 | 139 | 7.0 | 13.0 | 0.00 | 0.00 | 0.00 | 68 | 1011.5 |
| 20260904024305 | 82 | 139 | 7.0 | 13.0 | 0.00 | 0.00 | 0.00 | 68 | 1011.5 |
| 20260904024206 | 82 | 138 | 7.0 | 15.0 | 0.00 | 0.00 | 0.00 | 68 | 1011.5 |
| 20260904024106 | 82 | 139 | 7.0 | 15.0 | 0.00 | 0.00 | 0.00 | 67 | 1011.4 |
| 20260904024006 | 82 | 140 | 7.0 | 15.0 | 0.00 | 0.00 | 0.00 | 67 | 1011.4 |
| 20260904023906 | 82 | 141 | 6.0 | 15.0 | 0.00 | 0.00 | 0.00 | 67 | 1011.4 |
| 20260904023706 | 82 | 141 | 6.0 | 15.0 | 0.00 | 0.00 | 0.00 | 67 | 1011.4 |
| 20260904023606 | 82 | 140 | 6.0 | 15.0 | 0.00 | 0.00 | 0.00 | 67 | 1011.4 |
| 20260904023505 | 82 | 141 | 6.0 | 15.0 | 0.00 | 0.00 | 0.00 | 67 | 1011.4 |
| 20260904023406 | 82 | 140 | 6.0 | 15.0 | 0.00 | 0.00 | 0.00 | 67 | 1011.4 |
| 20260904023206 | 82 | 142 | 6.0 | 12.0 | 0.00 | 0.00 | 0.00 | 67 | 1011.4 |
| 20260904023106 | 82 | 142 | 6.0 | 12.0 | 0.00 | 0.00 | 0.00 | 67 | 1011.4 |
| 20260904023006 | 82 | 142 | 6.0 | 12.0 | 0.00 | 0.00 | 0.00 | 67 | 1011.3 |
| 20260904022905 | 82 | 141 | 6.0 | 12.0 | 0.00 | 0.00 | 0.00 | 67 | 1011.4 |
| 20260904022806 | 82 | 141 | 6.0 | 12.0 | 0.00 | 0.00 | 0.00 | 67 | 1011.4 |
| 20260904022706 | 82 | 141 | 6.0 | 12.0 | 0.00 | 0.00 | 0.00 | 67 | 1011.4 |
| 20260904022605 | 82 | 141 | 6.0 | 12.0 | 0.00 | 0.00 | 0.00 | 67 | 1011.4 |
| 20260904022506 | 82 | 140 | 6.0 | 12.0 | 0.00 | 0.00 | 0.00 | 67 | 1011.3 |
| 20260904022406 | 82 | 140 | 6.0 | 13.0 | 0.00 | 0.00 | 0.00 | 67 | 1011.3 |
| 20260904022206 | 83 | 140 | 6.0 | 13.0 | 0.00 | 0.00 | 0.00 | 67 | 1011.3 |
| 20260904022105 | 83 | 141 | 6.0 | 14.0 | 0.00 | 0.00 | 0.00 | 67 | 1011.3 |
| 20260904022006 | 83 | 142 | 7.0 | 14.0 | 0.00 | 0.00 | 0.00 | 67 | 1011.3 |
| 20260904021905 | 83 | 141 | 7.0 | 14.0 | 0.00 | 0.00 | 0.00 | 67 | 1011.3 |
| 20260904021805 | 83 | 141 | 7.0 | 14.0 | 0.00 | 0.00 | 0.00 | 67 | 1011.3 |
| 20260904021706 | 83 | 142 | 7.0 | 14.0 | 0.00 | 0.00 | 0.00 | 67 | 1011.3 |
| 20260904021605 | 83 | 143 | 7.0 | 14.0 | 0.00 | 0.00 | 0.00 | 67 | 1011.2 |
| 20260904021506 | 83 | 144 | 7.0 | 14.0 | 0.00 | 0.00 | 0.00 | 67 | 1011.2 |
| 20260904021405 | 83 | 145 | 7.0 | 14.0 | 0.00 | 0.00 | 0.00 | 67 | 1011.3 |
| 20260904021306 | 83 | 145 | 7.0 | 14.0 | 0.00 | 0.00 | 0.00 | 67 | 1011.3 |
| 20260904021206 | 83 | 147 | 7.0 | 14.0 | 0.00 | 0.00 | 0.00 | 67 | 1011.3 |
| 20260904021105 | 83 | 146 | 7.0 | 15.0 | 0.00 | 0.00 | 0.00 | 67 | 1011.3 |
| 20260904021006 | 83 | 146 | 8.0 | 15.0 | 0.00 | 0.00 | 0.00 | 67 | 1011.2 |
| 20260904020905 | 83 | 148 | 8.0 | 16.0 | 0.00 | 0.00 | 0.00 | 67 | 1011.2 |
| 20260904020806 | 83 | 147 | 8.0 | 16.0 | 0.00 | 0.00 | 0.00 | 67 | 1011.2 |
| 20260904020705 | 83 | 148 | 8.0 | 16.0 | 0.00 | 0.00 | 0.00 | 67 | 1011.2 |
| 20260904020606 | 83 | 146 | 8.0 | 16.0 | 0.00 | 0.00 | 0.00 | 67 | 1011.1 |
| 20260904020505 | 83 | 145 | 8.0 | 16.0 | 0.00 | 0.00 | 0.00 | 67 | 1011.1 |
| 20260904020406 | 83 | 143 | 8.0 | 16.0 | 0.00 | 0.00 | 0.00 | 67 | 1011.1 |
| 20260904020305 | 83 | 142 | 8.0 | 16.0 | 0.00 | 0.00 | 0.00 | 67 | 1011.1 |
| 20260904020206 | 83 | 140 | 8.0 | 16.0 | 0.00 | 0.00 | 0.00 | 67 | 1011.1 |
| 20260904020106 | 83 | 139 | 8.0 | 16.0 | 0.00 | 0.00 | 0.00 | 67 | 1011.0 |
| 20260904020006 | 83 | 139 | 7.0 | 16.0 | 0.00 | 0.00 | 0.00 | 67 | 1011.0 |
| 20260904015905 | 83 | 138 | 7.0 | 16.0 | 0.00 | 0.00 | 0.00 | 68 | 1011.0 |
| 20260904015806 | 83 | 137 | 7.0 | 14.0 | 0.00 | 0.00 | 0.00 | 68 | 1010.9 |
| 20260904015706 | 83 | 136 | 7.0 | 14.0 | 0.00 | 0.00 | 0.00 | 68 | 1010.9 |
| 20260904015605 | 83 | 137 | 7.0 | 14.0 | 0.00 | 0.00 | 0.00 | 68 | 1010.9 |
| 20260904015506 | 83 | 139 | 7.0 | 14.0 | 0.00 | 0.00 | 0.00 | 68 | 1010.9 |
| 20260904015406 | 83 | 141 | 7.0 | 14.0 | 0.00 | 0.00 | 0.00 | 68 | 1010.9 |
| 20260904015205 | 83 | 140 | 8.0 | 14.0 | 0.00 | 0.00 | 0.00 | 68 | 1010.9 |
| 20260904015106 | 83 | 141 | 8.0 | 14.0 | 0.00 | 0.00 | 0.00 | 68 | 1011.0 |
| 20260904015006 | 83 | 140 | 7.0 | 14.0 | 0.00 | 0.00 | 0.00 | 68 | 1011.0 |
| 20260904014905 | 83 | 139 | 7.0 | 14.0 | 0.00 | 0.00 | 0.00 | 68 | 1010.9 |
| 20260904014807 | 83 | 139 | 8.0 | 14.0 | 0.00 | 0.00 | 0.00 | 68 | 1011.0 |
| 20260904014606 | 84 | 138 | 7.0 | 14.0 | 0.00 | 0.00 | 0.00 | 68 | 1010.9 |
| 20260904014506 | 84 | 136 | 7.0 | 13.0 | 0.00 | 0.00 | 0.00 | 68 | 1011.0 |
| 20260904014307 | 84 | 134 | 7.0 | 14.0 | 0.00 | 0.00 | 0.00 | 68 | 1011.0 |
| 20260904014205 | 84 | 134 | 7.0 | 14.0 | 0.00 | 0.00 | 0.00 | 68 | 1011.0 |
| 20260904014106 | 84 | 131 | 7.0 | 14.0 | 0.00 | 0.00 | 0.00 | 68 | 1011.0 |
| 20260904013805 | 84 | 128 | 7.0 | 14.0 | 0.00 | 0.00 | 0.00 | 68 | 1010.9 |
| 20260904013705 | 84 | 128 | 7.0 | 14.0 | 0.00 | 0.00 | 0.00 | 68 | 1010.9 |
| 20260904013505 | 84 | 127 | 7.0 | 17.0 | 0.00 | 0.00 | 0.00 | 68 | 1010.9 |
| 20260904013406 | 84 | 128 | 8.0 | 17.0 | 0.00 | 0.00 | 0.00 | 68 | 1010.9 |
| 20260904013305 | 84 | 129 | 8.0 | 17.0 | 0.00 | 0.00 | 0.00 | 68 | 1010.9 |
| 20260904013206 | 84 | 129 | 8.0 | 17.0 | 0.00 | 0.00 | 0.00 | 68 | 1010.9 |
| 20260904013105 | 84 | 129 | 9.0 | 17.0 | 0.00 | 0.00 | 0.00 | 68 | 1010.9 |
| 20260904013006 | 84 | 129 | 9.0 | 17.0 | 0.00 | 0.00 | 0.00 | 68 | 1010.8 |
| 20260904012905 | 84 | 129 | 9.0 | 17.0 | 0.00 | 0.00 | 0.00 | 68 | 1010.8 |
| 20260904012806 | 84 | 128 | 9.0 | 17.0 | 0.00 | 0.00 | 0.00 | 67 | 1010.8 |
| 20260904012606 | 84 | 129 | 9.0 | 17.0 | 0.00 | 0.00 | 0.00 | 67 | 1010.8 |
| 20260904012505 | 84 | 129 | 9.0 | 19.0 | 0.00 | 0.00 | 0.00 | 67 | 1010.7 |
| 20260904012306 | 84 | 125 | 9.0 | 19.0 | 0.00 | 0.00 | 0.00 | 67 | 1010.7 |
| 20260904012206 | 84 | 124 | 9.0 | 19.0 | 0.00 | 0.00 | 0.00 | 67 | 1010.7 |
| 20260904012106 | 84 | 125 | 9.0 | 19.0 | 0.00 | 0.00 | 0.00 | 67 | 1010.7 |
| 20260904012005 | 84 | 125 | 10.0 | 19.0 | 0.00 | 0.00 | 0.00 | 67 | 1010.6 |
| 20260904011906 | 84 | 125 | 10.0 | 19.0 | 0.00 | 0.00 | 0.00 | 67 | 1010.7 |
| 20260904011805 | 84 | 126 | 10.0 | 19.0 | 0.00 | 0.00 | 0.00 | 67 | 1010.7 |
| 20260904011706 | 84 | 127 | 10.0 | 19.0 | 0.00 | 0.00 | 0.00 | 67 | 1010.6 |
| 20260904011605 | 84 | 126 | 10.0 | 19.0 | 0.00 | 0.00 | 0.00 | 67 | 1010.6 |
| 20260904011506 | 85 | 127 | 10.0 | 17.0 | 0.00 | 0.00 | 0.00 | 67 | 1010.6 |
| 20260904011405 | 85 | 128 | 10.0 | 17.0 | 0.00 | 0.00 | 0.00 | 67 | 1010.6 |
| 20260904011306 | 85 | 128 | 10.0 | 17.0 | 0.00 | 0.00 | 0.00 | 66 | 1010.6 |
| 20260904011205 | 85 | 129 | 9.0 | 17.0 | 0.00 | 0.00 | 0.00 | 66 | 1010.6 |
| 20260904011105 | 85 | 130 | 9.0 | 17.0 | 0.00 | 0.00 | 0.00 | 66 | 1010.6 |
| 20260904011006 | 85 | 131 | 9.0 | 17.0 | 0.00 | 0.00 | 0.00 | 66 | 1010.6 |
| 20260904010905 | 85 | 132 | 9.0 | 17.0 | 0.00 | 0.00 | 0.00 | 66 | 1010.5 |
| 20260904010805 | 85 | 131 | 9.0 | 16.0 | 0.00 | 0.00 | 0.00 | 66 | 1010.6 |
| 20260904010705 | 85 | 129 | 10.0 | 18.0 | 0.00 | 0.00 | 0.00 | 66 | 1010.5 |
| 20260904010606 | 85 | 129 | 10.0 | 18.0 | 0.00 | 0.00 | 0.00 | 66 | 1010.5 |
| 20260904010506 | 85 | 127 | 10.0 | 19.0 | 0.00 | 0.00 | 0.00 | 66 | 1010.5 |
| 20260904010406 | 85 | 125 | 10.0 | 19.0 | 0.00 | 0.00 | 0.00 | 66 | 1010.6 |
| 20260904010305 | 85 | 125 | 10.0 | 19.0 | 0.00 | 0.00 | 0.00 | 66 | 1010.6 |
| 20260904010105 | 85 | 124 | 11.0 | 19.0 | 0.00 | 0.00 | 0.00 | 66 | 1010.6 |
| 20260904010006 | 85 | 123 | 11.0 | 19.0 | 0.00 | 0.00 | 0.00 | 66 | 1010.7 |
| 20260904005905 | 85 | 122 | 11.0 | 19.0 | 0.00 | 0.00 | 0.00 | 66 | 1010.7 |
| 20260904005806 | 85 | 122 | 11.0 | 19.0 | 0.00 | 0.00 | 0.00 | 66 | 1010.7 |
| 20260904005605 | 85 | 120 | 10.0 | 19.0 | 0.00 | 0.00 | 0.00 | 66 | 1010.7 |
| 20260904005506 | 85 | 122 | 10.0 | 17.0 | 0.00 | 0.00 | 0.00 | 66 | 1010.7 |
| 20260904005405 | 85 | 123 | 10.0 | 17.0 | 0.00 | 0.00 | 0.00 | 66 | 1010.8 |
| 20260904005306 | 85 | 124 | 10.0 | 17.0 | 0.00 | 0.00 | 0.00 | 66 | 1010.8 |
| 20260904005105 | 86 | 124 | 10.0 | 19.0 | 0.00 | 0.00 | 0.00 | 65 | 1010.8 |
| 20260904005006 | 86 | 124 | 10.0 | 19.0 | 0.00 | 0.00 | 0.00 | 65 | 1010.8 |
| 20260904004906 | 86 | 125 | 10.0 | 20.0 | 0.00 | 0.00 | 0.00 | 65 | 1010.8 |
| 20260904004705 | 86 | 126 | 10.0 | 20.0 | 0.00 | 0.00 | 0.00 | 65 | 1010.8 |
| 20260904004606 | 86 | 126 | 11.0 | 20.0 | 0.00 | 0.00 | 0.00 | 65 | 1010.8 |
| 20260904004406 | 86 | 123 | 11.0 | 20.0 | 0.00 | 0.00 | 0.00 | 64 | 1010.7 |
| 20260904004306 | 86 | 122 | 11.0 | 20.0 | 0.00 | 0.00 | 0.00 | 64 | 1010.7 |
| 20260904004205 | 86 | 121 | 11.0 | 20.0 | 0.00 | 0.00 | 0.00 | 64 | 1010.6 |
| 20260904004105 | 86 | 119 | 11.0 | 20.0 | 0.00 | 0.00 | 0.00 | 64 | 1010.7 |
| 20260904004005 | 86 | 118 | 11.0 | 20.0 | 0.00 | 0.00 | 0.00 | 64 | 1010.6 |
| 20260904003907 | 86 | 116 | 11.0 | 19.0 | 0.00 | 0.00 | 0.00 | 64 | 1010.7 |
| 20260904003805 | 86 | 115 | 11.0 | 19.0 | 0.00 | 0.00 | 0.00 | 64 | 1010.7 |
| 20260904003706 | 86 | 115 | 10.0 | 19.0 | 0.00 | 0.00 | 0.00 | 63 | 1010.6 |
| 20260904003605 | 86 | 115 | 10.0 | 19.0 | 0.00 | 0.00 | 0.00 | 63 | 1010.6 |
| 20260904003506 | 86 | 116 | 10.0 | 19.0 | 0.00 | 0.00 | 0.00 | 63 | 1010.6 |
| 20260904003405 | 86 | 117 | 9.0 | 19.0 | 0.00 | 0.00 | 0.00 | 63 | 1010.6 |
| 20260904003306 | 86 | 118 | 9.0 | 19.0 | 0.00 | 0.00 | 0.00 | 63 | 1010.6 |
| 20260904003205 | 86 | 120 | 8.0 | 19.0 | 0.00 | 0.00 | 0.00 | 62 | 1010.6 |
| 20260904003106 | 87 | 122 | 8.0 | 19.0 | 0.00 | 0.00 | 0.00 | 62 | 1010.5 |
| 20260904003005 | 87 | 125 | 8.0 | 16.0 | 0.00 | 0.00 | 0.00 | 62 | 1010.5 |
| 20260904002805 | 87 | 127 | 9.0 | 17.0 | 0.00 | 0.00 | 0.00 | 62 | 1010.6 |
| 20260904002605 | 87 | 126 | 9.0 | 17.0 | 0.00 | 0.00 | 0.00 | 62 | 1010.5 |
| 20260904002505 | 87 | 124 | 9.0 | 17.0 | 0.00 | 0.00 | 0.00 | 62 | 1010.5 |
| 20260904002405 | 87 | 124 | 10.0 | 17.0 | 0.00 | 0.00 | 0.00 | 62 | 1010.4 |
| 20260904002306 | 87 | 122 | 10.0 | 17.0 | 0.00 | 0.00 | 0.00 | 62 | 1010.5 |
| 20260904002206 | 87 | 121 | 10.0 | 17.0 | 0.00 | 0.00 | 0.00 | 62 | 1010.4 |
| 20260904002105 | 87 | 120 | 10.0 | 17.0 | 0.00 | 0.00 | 0.00 | 62 | 1010.4 |
| 20260904002006 | 87 | 120 | 9.0 | 17.0 | 0.00 | 0.00 | 0.00 | 62 | 1010.4 |
| 20260904001905 | 87 | 119 | 9.0 | 17.0 | 0.00 | 0.00 | 0.00 | 62 | 1010.4 |
| 20260904001805 | 87 | 121 | 9.0 | 17.0 | 0.00 | 0.00 | 0.00 | 62 | 1010.5 |
| 20260904001705 | 87 | 121 | 9.0 | 17.0 | 0.00 | 0.00 | 0.00 | 62 | 1010.4 |
| 20260904001605 | 87 | 120 | 9.0 | 17.0 | 0.00 | 0.00 | 0.00 | 62 | 1010.5 |
| 20260904001506 | 87 | 121 | 9.0 | 17.0 | 0.00 | 0.00 | 0.00 | 62 | 1010.5 |
| 20260904001405 | 87 | 121 | 10.0 | 17.0 | 0.00 | 0.00 | 0.00 | 62 | 1010.5 |
| 20260904001305 | 87 | 122 | 10.0 | 17.0 | 0.00 | 0.00 | 0.00 | 62 | 1010.6 |
| 20260904001206 | 87 | 123 | 10.0 | 17.0 | 0.00 | 0.00 | 0.00 | 62 | 1010.5 |
| 20260904001105 | 87 | 122 | 10.0 | 17.0 | 0.00 | 0.00 | 0.00 | 62 | 1010.5 |
| 20260904001006 | 87 | 121 | 10.0 | 17.0 | 0.00 | 0.00 | 0.00 | 62 | 1010.5 |
| 20260904000906 | 87 | 121 | 11.0 | 17.0 | 0.00 | 0.00 | 0.00 | 62 | 1010.5 |
| 20260904000706 | 87 | 122 | 11.0 | 19.0 | 0.00 | 0.00 | 0.00 | 62 | 1010.5 |
| 20260904000605 | 87 | 122 | 10.0 | 21.0 | 0.00 | 0.00 | 0.00 | 62 | 1010.5 |
| 20260904000506 | 87 | 122 | 11.0 | 21.0 | 0.00 | 0.00 | 0.00 | 62 | 1010.4 |
| 20260904000405 | 87 | 121 | 10.0 | 21.0 | 0.00 | 0.00 | 0.00 | 62 | 1010.5 |
| 20260904000305 | 87 | 123 | 10.0 | 21.0 | 0.00 | 0.00 | 0.00 | 62 | 1010.4 |
| 20260904000205 | 87 | 123 | 11.0 | 21.0 | 0.00 | 0.00 | 0.00 | 63 | 1010.5 |
| 20260904000105 | 87 | 126 | 11.0 | 21.0 | 0.00 | 0.00 | 0.00 | 63 | 1010.5 |
| 20260904000006 | 87 | 127 | 12.0 | 23.0 | 0.00 | 0.00 | 0.00 | 63 | 1010.5 |
| 20260903235806 | 88 | 124 | 12.0 | 23.0 | 0.00 | 0.00 | 0.00 | 63 | 1010.5 |
| 20260903235706 | 88 | 125 | 12.0 | 23.0 | 0.00 | 0.00 | 0.00 | 64 | 1010.6 |
| 20260903235506 | 88 | 127 | 12.0 | 23.0 | 0.00 | 0.00 | 0.00 | 64 | 1010.6 |
| 20260903235306 | 88 | 127 | 13.0 | 23.0 | 0.00 | 0.00 | 0.00 | 64 | 1010.6 |
| 20260903235205 | 88 | 128 | 12.0 | 23.0 | 0.00 | 0.00 | 0.00 | 64 | 1010.5 |
| 20260903235106 | 88 | 126 | 12.0 | 23.0 | 0.00 | 0.00 | 0.00 | 65 | 1010.6 |
| 20260903234905 | 88 | 124 | 11.0 | 21.0 | 0.00 | 0.00 | 0.00 | 65 | 1010.5 |
| 20260903234805 | 88 | 123 | 11.0 | 21.0 | 0.00 | 0.00 | 0.00 | 65 | 1010.4 |
| 20260903234705 | 88 | 120 | 12.0 | 21.0 | 0.00 | 0.00 | 0.00 | 66 | 1010.5 |
| 20260903234406 | 88 | 115 | 12.0 | 19.0 | 0.00 | 0.00 | 0.00 | 66 | 1010.5 |
| 20260903234305 | 89 | 113 | 11.0 | 19.0 | 0.00 | 0.00 | 0.00 | 66 | 1010.5 |
| 20260903234206 | 89 | 111 | 12.0 | 19.0 | 0.00 | 0.00 | 0.00 | 66 | 1010.4 |
| 20260903234006 | 89 | 110 | 13.0 | 22.0 | 0.00 | 0.00 | 0.00 | 66 | 1010.4 |
| 20260903233905 | 89 | 110 | 13.0 | 22.0 | 0.00 | 0.00 | 0.00 | 65 | 1010.4 |
| 20260903233706 | 89 | 113 | 12.0 | 22.0 | 0.00 | 0.00 | 0.00 | 65 | 1010.4 |
| 20260903233605 | 89 | 114 | 12.0 | 22.0 | 0.00 | 0.00 | 0.00 | 64 | 1010.3 |
| 20260903233505 | 90 | 114 | 12.0 | 22.0 | 0.00 | 0.00 | 0.00 | 64 | 1010.4 |
| 20260903233405 | 90 | 115 | 13.0 | 22.0 | 0.00 | 0.00 | 0.00 | 64 | 1010.4 |
| 20260903233206 | 90 | 116 | 12.0 | 22.0 | 0.00 | 0.00 | 0.00 | 63 | 1010.3 |
| 20260903233105 | 90 | 116 | 12.0 | 20.0 | 0.00 | 0.00 | 0.00 | 63 | 1010.3 |
| 20260903233005 | 90 | 118 | 12.0 | 20.0 | 0.00 | 0.00 | 0.00 | 63 | 1010.3 |
| 20260903232905 | 90 | 120 | 12.0 | 24.0 | 0.00 | 0.00 | 0.00 | 63 | 1010.3 |
| 20260903232805 | 90 | 117 | 12.0 | 24.0 | 0.00 | 0.00 | 0.00 | 63 | 1010.3 |
| 20260903232705 | 90 | 117 | 12.0 | 24.0 | 0.00 | 0.00 | 0.00 | 62 | 1010.3 |
| 20260903232606 | 90 | 118 | 12.0 | 24.0 | 0.00 | 0.00 | 0.00 | 62 | 1010.3 |
| 20260903232506 | 90 | 120 | 12.0 | 24.0 | 0.00 | 0.00 | 0.00 | 62 | 1010.3 |
| 20260903232405 | 90 | 121 | 12.0 | 24.0 | 0.00 | 0.00 | 0.00 | 61 | 1010.3 |
| 20260903232306 | 91 | 125 | 11.0 | 24.0 | 0.00 | 0.00 | 0.00 | 60 | 1010.2 |
| 20260903232105 | 91 | 128 | 11.0 | 24.0 | 0.00 | 0.00 | 0.00 | 60 | 1010.3 |
| 20260903232005 | 91 | 129 | 11.0 | 24.0 | 0.00 | 0.00 | 0.00 | 60 | 1010.2 |
| 20260903231906 | 91 | 129 | 11.0 | 19.0 | 0.00 | 0.00 | 0.00 | 60 | 1010.2 |
| 20260903231805 | 91 | 131 | 11.0 | 19.0 | 0.00 | 0.00 | 0.00 | 60 | 1010.1 |
| 20260903231706 | 91 | 132 | 11.0 | 19.0 | 0.00 | 0.00 | 0.00 | 59 | 1010.2 |
| 20260903231605 | 91 | 133 | 11.0 | 19.0 | 0.00 | 0.00 | 0.00 | 59 | 1010.1 |
| 20260903231506 | 91 | 132 | 11.0 | 19.0 | 0.00 | 0.00 | 0.00 | 59 | 1010.2 |
| 20260903231406 | 91 | 130 | 12.0 | 19.0 | 0.00 | 0.00 | 0.00 | 59 | 1010.1 |
| 20260903231306 | 91 | 128 | 12.0 | 20.0 | 0.00 | 0.00 | 0.00 | 59 | 1010.1 |
| 20260903231205 | 91 | 128 | 12.0 | 20.0 | 0.00 | 0.00 | 0.00 | 58 | 1010.1 |
| 20260903231106 | 92 | 128 | 12.0 | 21.0 | 0.00 | 0.00 | 0.00 | 58 | 1010.1 |
| 20260903231005 | 92 | 126 | 12.0 | 23.0 | 0.00 | 0.00 | 0.00 | 58 | 1010.1 |
| 20260903230906 | 92 | 125 | 13.0 | 23.0 | 0.00 | 0.00 | 0.00 | 58 | 1010.0 |
| 20260903230806 | 92 | 124 | 12.0 | 23.0 | 0.00 | 0.00 | 0.00 | 58 | 1010.0 |
| 20260903230705 | 92 | 124 | 12.0 | 23.0 | 0.00 | 0.00 | 0.00 | 57 | 1010.0 |
| 20260903230605 | 92 | 124 | 12.0 | 23.0 | 0.00 | 0.00 | 0.00 | 57 | 1010.0 |
| 20260903230506 | 92 | 125 | 12.0 | 23.0 | 0.00 | 0.00 | 0.00 | 57 | 1010.0 |
| 20260903230405 | 92 | 126 | 12.0 | 23.0 | 0.00 | 0.00 | 0.00 | 58 | 1010.0 |
| 20260903230306 | 92 | 126 | 12.0 | 23.0 | 0.00 | 0.00 | 0.00 | 57 | 1009.9 |
| 20260903230205 | 92 | 125 | 12.0 | 23.0 | 0.00 | 0.00 | 0.00 | 57 | 1009.9 |
| 20260903230106 | 92 | 126 | 12.0 | 23.0 | 0.00 | 0.00 | 0.00 | 57 | 1009.9 |
| 20260903230005 | 92 | 126 | 12.0 | 23.0 | 0.00 | 0.00 | 0.00 | 56 | 1009.9 |
| 20260903225905 | 92 | 127 | 12.0 | 23.0 | 0.00 | 0.00 | 0.00 | 56 | 1009.8 |
| 20260903225805 | 92 | 129 | 12.0 | 23.0 | 0.00 | 0.00 | 0.00 | 56 | 1009.9 |
| 20260903225705 | 92 | 130 | 12.0 | 23.0 | 0.00 | 0.00 | 0.00 | 56 | 1009.8 |
| 20260903225507 | 93 | 129 | 12.0 | 23.0 | 0.00 | 0.00 | 0.00 | 56 | 1009.8 |
| 20260903225405 | 93 | 128 | 12.0 | 23.0 | 0.00 | 0.00 | 0.00 | 56 | 1009.9 |
| 20260903225307 | 93 | 128 | 12.0 | 23.0 | 0.00 | 0.00 | 0.00 | 56 | 1009.9 |
| 20260903225205 | 93 | 128 | 12.0 | 23.0 | 0.00 | 0.00 | 0.00 | 56 | 1009.9 |
| 20260903225106 | 93 | 126 | 12.0 | 23.0 | 0.00 | 0.00 | 0.00 | 56 | 1009.8 |
| 20260903224906 | 93 | 123 | 12.0 | 23.0 | 0.00 | 0.00 | 0.00 | 55 | 1009.8 |
| 20260903224805 | 93 | 122 | 12.0 | 22.0 | 0.00 | 0.00 | 0.00 | 55 | 1009.8 |
| 20260903224706 | 93 | 122 | 12.0 | 22.0 | 0.00 | 0.00 | 0.00 | 55 | 1009.8 |
| 20260903224505 | 93 | 123 | 12.0 | 22.0 | 0.00 | 0.00 | 0.00 | 55 | 1009.8 |
| 20260903224405 | 93 | 124 | 12.0 | 22.0 | 0.00 | 0.00 | 0.00 | 55 | 1009.8 |
| 20260903224305 | 93 | 125 | 12.0 | 22.0 | 0.00 | 0.00 | 0.00 | 55 | 1009.8 |
| 20260903224206 | 93 | 125 | 11.0 | 22.0 | 0.00 | 0.00 | 0.00 | 55 | 1009.8 |
| 20260903224106 | 94 | 125 | 11.0 | 21.0 | 0.00 | 0.00 | 0.00 | 55 | 1009.8 |
| 20260903224007 | 94 | 125 | 11.0 | 21.0 | 0.00 | 0.00 | 0.00 | 55 | 1009.8 |
| 20260903223905 | 94 | 124 | 11.0 | 21.0 | 0.00 | 0.00 | 0.00 | 55 | 1009.8 |
| 20260903223806 | 94 | 121 | 11.0 | 21.0 | 0.00 | 0.00 | 0.00 | 55 | 1009.8 |
| 20260903223706 | 94 | 118 | 11.0 | 20.0 | 0.00 | 0.00 | 0.00 | 55 | 1009.8 |
| 20260903223605 | 94 | 115 | 12.0 | 20.0 | 0.00 | 0.00 | 0.00 | 55 | 1009.7 |
| 20260903223506 | 94 | 115 | 12.0 | 20.0 | 0.00 | 0.00 | 0.00 | 55 | 1009.7 |
| 20260903223405 | 94 | 114 | 11.0 | 20.0 | 0.00 | 0.00 | 0.00 | 55 | 1009.8 |
| 20260903223305 | 94 | 113 | 11.0 | 20.0 | 0.00 | 0.00 | 0.00 | 55 | 1009.7 |
| 20260903223105 | 94 | 114 | 12.0 | 20.0 | 0.00 | 0.00 | 0.00 | 56 | 1009.7 |
| 20260903222906 | 94 | 116 | 11.0 | 20.0 | 0.00 | 0.00 | 0.00 | 55 | 1009.7 |
| 20260903222805 | 94 | 117 | 11.0 | 20.0 | 0.00 | 0.00 | 0.00 | 55 | 1009.7 |
| 20260903222706 | 94 | 119 | 11.0 | 19.0 | 0.00 | 0.00 | 0.00 | 56 | 1009.8 |
| 20260903222605 | 94 | 119 | 11.0 | 19.0 | 0.00 | 0.00 | 0.00 | 55 | 1009.7 |
| 20260903222506 | 94 | 118 | 10.0 | 19.0 | 0.00 | 0.00 | 0.00 | 55 | 1009.8 |
| 20260903222306 | 94 | 121 | 11.0 | 19.0 | 0.00 | 0.00 | 0.00 | 55 | 1009.7 |
| 20260903222205 | 94 | 121 | 11.0 | 19.0 | 0.00 | 0.00 | 0.00 | 55 | 1009.7 |
| 20260903222106 | 94 | 123 | 10.0 | 19.0 | 0.00 | 0.00 | 0.00 | 56 | 1009.7 |
| 20260903221805 | 94 | 129 | 11.0 | 18.0 | 0.00 | 0.00 | 0.00 | 56 | 1009.7 |
| 20260903221706 | 94 | 128 | 10.0 | 18.0 | 0.00 | 0.00 | 0.00 | 56 | 1009.7 |
| 20260903221605 | 94 | 129 | 11.0 | 18.0 | 0.00 | 0.00 | 0.00 | 56 | 1009.7 |
| 20260903221405 | 94 | 125 | 12.0 | 21.0 | 0.00 | 0.00 | 0.00 | 55 | 1009.6 |
| 20260903221305 | 94 | 120 | 12.0 | 21.0 | 0.00 | 0.00 | 0.00 | 55 | 1009.7 |
| 20260903221205 | 94 | 118 | 11.0 | 21.0 | 0.00 | 0.00 | 0.00 | 55 | 1009.6 |
| 20260903221005 | 94 | 116 | 12.0 | 21.0 | 0.00 | 0.00 | 0.00 | 56 | 1009.7 |
| 20260903220906 | 94 | 116 | 12.0 | 21.0 | 0.00 | 0.00 | 0.00 | 56 | 1009.6 |
| 20260903220705 | 94 | 116 | 13.0 | 22.0 | 0.00 | 0.00 | 0.00 | 57 | 1009.7 |
| 20260903220505 | 94 | 116 | 13.0 | 22.0 | 0.00 | 0.00 | 0.00 | 56 | 1009.7 |
| 20260903220405 | 94 | 116 | 12.0 | 22.0 | 0.00 | 0.00 | 0.00 | 56 | 1009.6 |
| 20260903220305 | 94 | 119 | 12.0 | 22.0 | 0.00 | 0.00 | 0.00 | 56 | 1009.7 |
| 20260903220205 | 94 | 119 | 12.0 | 22.0 | 0.00 | 0.00 | 0.00 | 56 | 1009.7 |
| 20260903220105 | 94 | 120 | 12.0 | 22.0 | 0.00 | 0.00 | 0.00 | 56 | 1009.7 |
| 20260903215905 | 94 | 118 | 12.0 | 22.0 | 0.00 | 0.00 | 0.00 | 56 | 1009.6 |
| 20260903215605 | 94 | 117 | 11.0 | 20.0 | 0.00 | 0.00 | 0.00 | 56 | 1009.5 |
| 20260903215506 | 94 | 120 | 11.0 | 20.0 | 0.00 | 0.00 | 0.00 | 56 | 1009.6 |
| 20260903215405 | 94 | 121 | 12.0 | 20.0 | 0.00 | 0.00 | 0.00 | 55 | 1009.7 |
| 20260903215306 | 94 | 121 | 12.0 | 20.0 | 0.00 | 0.00 | 0.00 | 56 | 1009.5 |
| 20260903215205 | 94 | 120 | 12.0 | 20.0 | 0.00 | 0.00 | 0.00 | 56 | 1009.6 |
| 20260903215106 | 94 | 119 | 12.0 | 20.0 | 0.00 | 0.00 | 0.00 | 56 | 1009.5 |
| 20260903215005 | 95 | 118 | 12.0 | 20.0 | 0.00 | 0.00 | 0.00 | 56 | 1009.6 |
| 20260903214906 | 94 | 119 | 12.0 | 20.0 | 0.00 | 0.00 | 0.00 | 56 | 1009.6 |
| 20260903214805 | 94 | 120 | 12.0 | 20.0 | 0.00 | 0.00 | 0.00 | 56 | 1009.6 |
| 20260903214705 | 95 | 119 | 13.0 | 20.0 | 0.00 | 0.00 | 0.00 | 56 | 1009.6 |
| 20260903214606 | 95 | 117 | 13.0 | 20.0 | 0.00 | 0.00 | 0.00 | 56 | 1009.6 |
| 20260903214506 | 95 | 116 | 12.0 | 20.0 | 0.00 | 0.00 | 0.00 | 56 | 1009.6 |
| 20260903214405 | 95 | 114 | 12.0 | 20.0 | 0.00 | 0.00 | 0.00 | 55 | 1009.5 |
| 20260903214306 | 95 | 114 | 12.0 | 20.0 | 0.00 | 0.00 | 0.00 | 55 | 1009.5 |
| 20260903214205 | 95 | 112 | 11.0 | 19.0 | 0.00 | 0.00 | 0.00 | 55 | 1009.5 |
| 20260903214106 | 95 | 111 | 11.0 | 19.0 | 0.00 | 0.00 | 0.00 | 55 | 1009.5 |
| 20260903214005 | 95 | 110 | 11.0 | 19.0 | 0.00 | 0.00 | 0.00 | 55 | 1009.5 |
| 20260903213905 | 95 | 108 | 11.0 | 19.0 | 0.00 | 0.00 | 0.00 | 54 | 1009.5 |
| 20260903213805 | 95 | 106 | 11.0 | 20.0 | 0.00 | 0.00 | 0.00 | 55 | 1009.6 |
| 20260903213706 | 95 | 105 | 11.0 | 20.0 | 0.00 | 0.00 | 0.00 | 55 | 1009.6 |
| 20260903213605 | 95 | 105 | 10.0 | 20.0 | 0.00 | 0.00 | 0.00 | 55 | 1009.6 |
| 20260903213506 | 95 | 106 | 10.0 | 20.0 | 0.00 | 0.00 | 0.00 | 55 | 1009.6 |
| 20260903213405 | 95 | 107 | 10.0 | 20.0 | 0.00 | 0.00 | 0.00 | 55 | 1009.7 |
| 20260903213305 | 95 | 108 | 10.0 | 20.0 | 0.00 | 0.00 | 0.00 | 56 | 1009.6 |
| 20260903213205 | 95 | 111 | 11.0 | 20.0 | 0.00 | 0.00 | 0.00 | 56 | 1009.7 |
| 20260903213105 | 95 | 111 | 11.0 | 20.0 | 0.00 | 0.00 | 0.00 | 56 | 1009.7 |
| 20260903213006 | 95 | 111 | 11.0 | 20.0 | 0.00 | 0.00 | 0.00 | 56 | 1009.7 |
| 20260903212906 | 95 | 111 | 11.0 | 20.0 | 0.00 | 0.00 | 0.00 | 56 | 1009.6 |
| 20260903212805 | 95 | 112 | 12.0 | 21.0 | 0.00 | 0.00 | 0.00 | 56 | 1009.8 |
| 20260903212706 | 95 | 112 | 11.0 | 21.0 | 0.00 | 0.00 | 0.00 | 55 | 1009.6 |
| 20260903212605 | 95 | 111 | 11.0 | 21.0 | 0.00 | 0.00 | 0.00 | 57 | 1009.8 |
| 20260903212505 | 95 | 111 | 11.0 | 21.0 | 0.00 | 0.00 | 0.00 | 57 | 1009.8 |
| 20260903212307 | 94 | 111 | 11.0 | 21.0 | 0.00 | 0.00 | 0.00 | 56 | 1009.7 |
| 20260903212205 | 94 | 109 | 10.0 | 21.0 | 0.00 | 0.00 | 0.00 | 57 | 1009.8 |
| 20260903212105 | 94 | 109 | 10.0 | 21.0 | 0.00 | 0.00 | 0.00 | 57 | 1009.8 |
| 20260903212005 | 95 | 113 | 10.0 | 21.0 | 0.00 | 0.00 | 0.00 | 57 | 1009.9 |
| 20260903211805 | 95 | 116 | 9.0 | 19.0 | 0.00 | 0.00 | 0.00 | 56 | 1009.9 |
| 20260903211705 | 95 | 119 | 9.0 | 17.0 | 0.00 | 0.00 | 0.00 | 56 | 1009.9 |
| 20260903211605 | 95 | 118 | 9.0 | 18.0 | 0.00 | 0.00 | 0.00 | 56 | 1009.9 |
| 20260903211506 | 95 | 118 | 9.0 | 18.0 | 0.00 | 0.00 | 0.00 | 55 | 1009.9 |
| 20260903211405 | 95 | 120 | 9.0 | 18.0 | 0.00 | 0.00 | 0.00 | 55 | 1010.0 |
| 20260903211205 | 95 | 120 | 9.0 | 18.0 | 0.00 | 0.00 | 0.00 | 56 | 1010.0 |
| 20260903211105 | 95 | 121 | 9.0 | 18.0 | 0.00 | 0.00 | 0.00 | 56 | 1010.0 |
| 20260903211006 | 95 | 120 | 9.0 | 18.0 | 0.00 | 0.00 | 0.00 | 56 | 1010.0 |
| 20260903210905 | 95 | 119 | 9.0 | 18.0 | 0.00 | 0.00 | 0.00 | 56 | 1010.0 |
| 20260903210805 | 95 | 122 | 9.0 | 18.0 | 0.00 | 0.00 | 0.00 | 56 | 1010.0 |
| 20260903210705 | 95 | 120 | 9.0 | 18.0 | 0.00 | 0.00 | 0.00 | 56 | 1010.0 |
| 20260903210605 | 95 | 121 | 9.0 | 16.0 | 0.00 | 0.00 | 0.00 | 56 | 1010.1 |
| 20260903210506 | 95 | 119 | 9.0 | 16.0 | 0.00 | 0.00 | 0.00 | 56 | 1010.1 |
| 20260903210405 | 95 | 116 | 9.0 | 16.0 | 0.00 | 0.00 | 0.00 | 56 | 1010.1 |
| 20260903210306 | 95 | 120 | 9.0 | 16.0 | 0.00 | 0.00 | 0.00 | 56 | 1010.1 |
| 20260903210205 | 95 | 126 | 9.0 | 16.0 | 0.00 | 0.00 | 0.00 | 55 | 1010.1 |
| 20260903210105 | 95 | 129 | 9.0 | 16.0 | 0.00 | 0.00 | 0.00 | 55 | 1010.1 |
| 20260903210005 | 95 | 130 | 9.0 | 16.0 | 0.00 | 0.00 | 0.00 | 56 | 1010.1 |
| 20260903205906 | 95 | 131 | 10.0 | 18.0 | 0.00 | 0.00 | 0.00 | 56 | 1010.1 |
| 20260903205805 | 95 | 131 | 9.0 | 18.0 | 0.00 | 0.00 | 0.00 | 56 | 1010.1 |
| 20260903205705 | 95 | 133 | 9.0 | 18.0 | 0.00 | 0.00 | 0.00 | 57 | 1010.1 |
| 20260903205605 | 95 | 139 | 9.0 | 18.0 | 0.00 | 0.00 | 0.00 | 57 | 1010.2 |
| 20260903205505 | 95 | 143 | 8.0 | 18.0 | 0.00 | 0.00 | 0.00 | 57 | 1010.2 |
| 20260903205404 | 94 | 147 | 8.0 | 18.0 | 0.00 | 0.00 | 0.00 | 57 | 1010.2 |
| 20260903205205 | 95 | 138 | 8.0 | 18.0 | 0.00 | 0.00 | 0.00 | 57 | 1010.3 |
| 20260903205105 | 95 | 133 | 8.0 | 18.0 | 0.00 | 0.00 | 0.00 | 57 | 1010.3 |
| 20260903205005 | 95 | 133 | 8.0 | 18.0 | 0.00 | 0.00 | 0.00 | 56 | 1010.4 |
| 20260903204905 | 95 | 131 | 8.0 | 19.0 | 0.00 | 0.00 | 0.00 | 57 | 1010.4 |
| 20260903204804 | 95 | 131 | 9.0 | 19.0 | 0.00 | 0.00 | 0.00 | 57 | 1010.4 |
| 20260903204705 | 95 | 126 | 9.0 | 19.0 | 0.00 | 0.00 | 0.00 | 58 | 1010.4 |
| 20260903204605 | 95 | 120 | 10.0 | 20.0 | 0.00 | 0.00 | 0.00 | 58 | 1010.4 |
| 20260903204405 | 95 | 116 | 10.0 | 20.0 | 0.00 | 0.00 | 0.00 | 58 | 1010.5 |
| 20260903204106 | 94 | 114 | 10.0 | 20.0 | 0.00 | 0.00 | 0.00 | 58 | 1010.6 |
| 20260903204005 | 94 | 113 | 10.0 | 20.0 | 0.00 | 0.00 | 0.00 | 58 | 1010.6 |
| 20260903203905 | 94 | 111 | 10.0 | 20.0 | 0.00 | 0.00 | 0.00 | 58 | 1010.7 |
| 20260903203705 | 94 | 111 | 9.0 | 20.0 | 0.00 | 0.00 | 0.00 | 58 | 1010.7 |
| 20260903203605 | 95 | 111 | 9.0 | 19.0 | 0.00 | 0.00 | 0.00 | 57 | 1010.7 |
| 20260903203505 | 95 | 113 | 8.0 | 16.0 | 0.00 | 0.00 | 0.00 | 57 | 1010.7 |
| 20260903203406 | 95 | 113 | 9.0 | 16.0 | 0.00 | 0.00 | 0.00 | 57 | 1010.7 |
| 20260903203305 | 95 | 113 | 8.0 | 16.0 | 0.00 | 0.00 | 0.00 | 57 | 1010.8 |
| 20260903203105 | 95 | 113 | 8.0 | 15.0 | 0.00 | 0.00 | 0.00 | 57 | 1010.7 |
| 20260903203005 | 95 | 114 | 9.0 | 17.0 | 0.00 | 0.00 | 0.00 | 57 | 1010.8 |
| 20260903202706 | 95 | 115 | 9.0 | 17.0 | 0.00 | 0.00 | 0.00 | 58 | 1010.8 |
| 20260903202605 | 94 | 115 | 9.0 | 17.0 | 0.00 | 0.00 | 0.00 | 58 | 1010.8 |
| 20260903202506 | 94 | 114 | 9.0 | 17.0 | 0.00 | 0.00 | 0.00 | 58 | 1010.8 |
| 20260903202405 | 94 | 114 | 9.0 | 17.0 | 0.00 | 0.00 | 0.00 | 58 | 1010.8 |
| 20260903202206 | 94 | 114 | 10.0 | 17.0 | 0.00 | 0.00 | 0.00 | 58 | 1010.9 |
| 20260903202105 | 94 | 115 | 10.0 | 17.0 | 0.00 | 0.00 | 0.00 | 57 | 1010.8 |
| 20260903202005 | 94 | 114 | 9.0 | 17.0 | 0.00 | 0.00 | 0.00 | 57 | 1010.9 |
| 20260903201804 | 94 | 115 | 9.0 | 17.0 | 0.00 | 0.00 | 0.00 | 58 | 1010.9 |
| 20260903201605 | 94 | 118 | 9.0 | 17.0 | 0.00 | 0.00 | 0.00 | 58 | 1011.0 |
| 20260903201506 | 94 | 121 | 9.0 | 15.0 | 0.00 | 0.00 | 0.00 | 58 | 1010.9 |
| 20260903201405 | 94 | 120 | 9.0 | 18.0 | 0.00 | 0.00 | 0.00 | 58 | 1011.0 |
| 20260903201305 | 94 | 120 | 9.0 | 18.0 | 0.00 | 0.00 | 0.00 | 57 | 1011.0 |
| 20260903201204 | 94 | 120 | 9.0 | 18.0 | 0.00 | 0.00 | 0.00 | 57 | 1011.0 |
| 20260903201105 | 94 | 119 | 9.0 | 18.0 | 0.00 | 0.00 | 0.00 | 58 | 1011.0 |
| 20260903201005 | 94 | 120 | 9.0 | 18.0 | 0.00 | 0.00 | 0.00 | 56 | 1010.9 |
| 20260903200905 | 94 | 117 | 9.0 | 18.0 | 0.00 | 0.00 | 0.00 | 56 | 1011.1 |
| 20260903200805 | 94 | 115 | 9.0 | 18.0 | 0.00 | 0.00 | 0.00 | 56 | 1011.1 |
| 20260903200705 | 94 | 115 | 9.0 | 18.0 | 0.00 | 0.00 | 0.00 | 57 | 1011.2 |
| 20260903200605 | 94 | 115 | 9.0 | 18.0 | 0.00 | 0.00 | 0.00 | 56 | 1011.1 |
| 20260903200506 | 94 | 111 | 8.0 | 18.0 | 0.00 | 0.00 | 0.00 | 57 | 1011.1 |
| 20260903200405 | 95 | 112 | 8.0 | 17.0 | 0.00 | 0.00 | 0.00 | 57 | 1011.1 |
| 20260903200306 | 95 | 109 | 9.0 | 19.0 | 0.00 | 0.00 | 0.00 | 56 | 1011.1 |
| 20260903200105 | 95 | 112 | 8.0 | 19.0 | 0.00 | 0.00 | 0.00 | 57 | 1011.1 |
| 20260903200005 | 95 | 115 | 8.0 | 19.0 | 0.00 | 0.00 | 0.00 | 58 | 1011.1 |
| 20260903195905 | 95 | 117 | 8.0 | 19.0 | 0.00 | 0.00 | 0.00 | 58 | 1011.1 |
| 20260903195606 | 94 | 111 | 9.0 | 19.0 | 0.00 | 0.00 | 0.00 | 58 | 1011.2 |
| 20260903195505 | 94 | 115 | 9.0 | 19.0 | 0.00 | 0.00 | 0.00 | 57 | 1011.1 |
| 20260903195405 | 94 | 116 | 8.0 | 19.0 | 0.00 | 0.00 | 0.00 | 57 | 1011.2 |
| 20260903195204 | 94 | 120 | 8.0 | 17.0 | 0.00 | 0.00 | 0.00 | 55 | 1011.2 |
| 20260903195005 | 94 | 117 | 8.0 | 17.0 | 0.00 | 0.00 | 0.00 | 56 | 1011.3 |
| 20260903194905 | 94 | 118 | 8.0 | 17.0 | 0.00 | 0.00 | 0.00 | 59 | 1011.2 |
| 20260903194805 | 94 | 119 | 7.0 | 17.0 | 0.00 | 0.00 | 0.00 | 59 | 1011.2 |
| 20260903194705 | 94 | 124 | 7.0 | 14.0 | 0.00 | 0.00 | 0.00 | 57 | 1011.3 |
| 20260903194605 | 95 | 126 | 8.0 | 14.0 | 0.00 | 0.00 | 0.00 | 55 | 1011.3 |
| 20260903194505 | 95 | 121 | 8.0 | 15.0 | 0.00 | 0.00 | 0.00 | 53 | 1011.2 |
| 20260903194405 | 95 | 119 | 8.0 | 16.0 | 0.00 | 0.00 | 0.00 | 55 | 1011.3 |
| 20260903194305 | 95 | 120 | 8.0 | 16.0 | 0.00 | 0.00 | 0.00 | 55 | 1011.3 |
| 20260903194204 | 95 | 120 | 9.0 | 16.0 | 0.00 | 0.00 | 0.00 | 55 | 1011.3 |
| 20260903194105 | 95 | 120 | 9.0 | 16.0 | 0.00 | 0.00 | 0.00 | 55 | 1011.3 |
| 20260903194005 | 95 | 121 | 9.0 | 16.0 | 0.00 | 0.00 | 0.00 | 55 | 1011.3 |
| 20260903193905 | 95 | 120 | 9.0 | 16.0 | 0.00 | 0.00 | 0.00 | 55 | 1011.3 |
| 20260903193805 | 94 | 119 | 10.0 | 17.0 | 0.00 | 0.00 | 0.00 | 55 | 1011.3 |
| 20260903193705 | 94 | 118 | 10.0 | 17.0 | 0.00 | 0.00 | 0.00 | 55 | 1011.3 |
| 20260903193606 | 94 | 118 | 9.0 | 17.0 | 0.00 | 0.00 | 0.00 | 55 | 1011.3 |
| 20260903193505 | 94 | 121 | 9.0 | 17.0 | 0.00 | 0.00 | 0.00 | 55 | 1011.4 |
| 20260903193405 | 94 | 124 | 8.0 | 17.0 | 0.00 | 0.00 | 0.00 | 54 | 1011.4 |
| 20260903193205 | 95 | 123 | 9.0 | 18.0 | 0.00 | 0.00 | 0.00 | 54 | 1011.4 |
| 20260903193104 | 95 | 124 | 9.0 | 18.0 | 0.00 | 0.00 | 0.00 | 53 | 1011.5 |
| 20260903192905 | 95 | 122 | 8.0 | 18.0 | 0.00 | 0.00 | 0.00 | 54 | 1011.5 |
| 20260903192704 | 94 | 125 | 8.0 | 18.0 | 0.00 | 0.00 | 0.00 | 54 | 1011.5 |
| 20260903192605 | 94 | 124 | 8.0 | 18.0 | 0.00 | 0.00 | 0.00 | 54 | 1011.5 |
| 20260903192404 | 94 | 123 | 8.0 | 18.0 | 0.00 | 0.00 | 0.00 | 54 | 1011.6 |
| 20260903192306 | 94 | 121 | 8.0 | 18.0 | 0.00 | 0.00 | 0.00 | 54 | 1011.6 |
| 20260903192205 | 94 | 119 | 7.0 | 15.0 | 0.00 | 0.00 | 0.00 | 54 | 1011.6 |
| 20260903192104 | 94 | 119 | 8.0 | 14.0 | 0.00 | 0.00 | 0.00 | 54 | 1011.6 |
| 20260903191904 | 94 | 121 | 8.0 | 15.0 | 0.00 | 0.00 | 0.00 | 55 | 1011.7 |
| 20260903191805 | 94 | 120 | 8.0 | 15.0 | 0.00 | 0.00 | 0.00 | 54 | 1011.8 |
| 20260903191706 | 94 | 121 | 8.0 | 15.0 | 0.00 | 0.00 | 0.00 | 54 | 1011.8 |
| 20260903191605 | 94 | 122 | 8.0 | 15.0 | 0.00 | 0.00 | 0.00 | 54 | 1011.8 |
| 20260903191505 | 94 | 122 | 8.0 | 15.0 | 0.00 | 0.00 | 0.00 | 54 | 1011.8 |
| 20260903191305 | 94 | 123 | 8.0 | 17.0 | 0.00 | 0.00 | 0.00 | 55 | 1011.8 |
| 20260903191206 | 94 | 123 | 8.0 | 17.0 | 0.00 | 0.00 | 0.00 | 54 | 1011.8 |
| 20260903191105 | 94 | 121 | 8.0 | 17.0 | 0.00 | 0.00 | 0.00 | 55 | 1011.9 |
| 20260903191005 | 94 | 120 | 8.0 | 17.0 | 0.00 | 0.00 | 0.00 | 55 | 1011.9 |
| 20260903190905 | 94 | 121 | 8.0 | 17.0 | 0.00 | 0.00 | 0.00 | 55 | 1011.9 |
| 20260903190805 | 94 | 122 | 8.0 | 17.0 | 0.00 | 0.00 | 0.00 | 55 | 1011.9 |
| 20260903190705 | 94 | 120 | 9.0 | 17.0 | 0.00 | 0.00 | 0.00 | 55 | 1012.0 |
| 20260903190605 | 93 | 118 | 9.0 | 17.0 | 0.00 | 0.00 | 0.00 | 55 | 1012.0 |
| 20260903190504 | 93 | 117 | 9.0 | 17.0 | 0.00 | 0.00 | 0.00 | 56 | 1012.0 |
| 20260903190206 | 93 | 122 | 8.0 | 14.0 | 0.00 | 0.00 | 0.00 | 56 | 1012.0 |
| 20260903190005 | 93 | 126 | 8.0 | 14.0 | 0.00 | 0.00 | 0.00 | 55 | 1012.1 |
| 20260903185904 | 93 | 124 | 8.0 | 14.0 | 0.00 | 0.00 | 0.00 | 55 | 1012.1 |
| 20260903185805 | 93 | 123 | 8.0 | 14.0 | 0.00 | 0.00 | 0.00 | 55 | 1012.1 |
| 20260903185704 | 93 | 125 | 7.0 | 14.0 | 0.00 | 0.00 | 0.00 | 56 | 1012.2 |
| 20260903185605 | 93 | 126 | 6.0 | 13.0 | 0.00 | 0.00 | 0.00 | 56 | 1012.2 |
| 20260903185504 | 93 | 126 | 7.0 | 12.0 | 0.00 | 0.00 | 0.00 | 55 | 1012.2 |
| 20260903185306 | 92 | 121 | 7.0 | 14.0 | 0.00 | 0.00 | 0.00 | 56 | 1012.2 |
| 20260903185206 | 92 | 117 | 7.0 | 14.0 | 0.00 | 0.00 | 0.00 | 56 | 1012.2 |
| 20260903185105 | 92 | 115 | 7.0 | 14.0 | 0.00 | 0.00 | 0.00 | 55 | 1012.3 |
| 20260903184905 | 93 | 119 | 7.0 | 14.0 | 0.00 | 0.00 | 0.00 | 56 | 1012.3 |
| 20260903184704 | 93 | 116 | 8.0 | 15.0 | 0.00 | 0.00 | 0.00 | 55 | 1012.4 |
| 20260903184605 | 93 | 116 | 9.0 | 15.0 | 0.00 | 0.00 | 0.00 | 55 | 1012.4 |
| 20260903184404 | 93 | 117 | 8.0 | 15.0 | 0.00 | 0.00 | 0.00 | 56 | 1012.4 |
| 20260903184104 | 92 | 120 | 8.0 | 15.0 | 0.00 | 0.00 | 0.00 | 56 | 1012.4 |
| 20260903184005 | 92 | 118 | 8.0 | 15.0 | 0.00 | 0.00 | 0.00 | 56 | 1012.5 |
| 20260903183904 | 92 | 116 | 7.0 | 15.0 | 0.00 | 0.00 | 0.00 | 56 | 1012.4 |
| 20260903183805 | 92 | 119 | 7.0 | 15.0 | 0.00 | 0.00 | 0.00 | 57 | 1012.4 |
| 20260903183704 | 92 | 122 | 7.0 | 13.0 | 0.00 | 0.00 | 0.00 | 58 | 1012.5 |
| 20260903183605 | 91 | 120 | 7.0 | 13.0 | 0.00 | 0.00 | 0.00 | 58 | 1012.5 |
| 20260903183504 | 91 | 121 | 8.0 | 14.0 | 0.00 | 0.00 | 0.00 | 58 | 1012.5 |
| 20260903183405 | 91 | 121 | 8.0 | 14.0 | 0.00 | 0.00 | 0.00 | 59 | 1012.5 |
| 20260903183304 | 91 | 120 | 7.0 | 14.0 | 0.00 | 0.00 | 0.00 | 59 | 1012.6 |
| 20260903183205 | 90 | 119 | 8.0 | 14.0 | 0.00 | 0.00 | 0.00 | 59 | 1012.5 |
| 20260903183104 | 90 | 118 | 8.0 | 14.0 | 0.00 | 0.00 | 0.00 | 59 | 1012.6 |
| 20260903183006 | 90 | 122 | 8.0 | 14.0 | 0.00 | 0.00 | 0.00 | 59 | 1012.6 |
| 20260903182905 | 90 | 122 | 8.0 | 14.0 | 0.00 | 0.00 | 0.00 | 58 | 1012.6 |
| 20260903182805 | 90 | 121 | 8.0 | 14.0 | 0.00 | 0.00 | 0.00 | 58 | 1012.6 |
| 20260903182605 | 90 | 124 | 7.0 | 14.0 | 0.00 | 0.00 | 0.00 | 58 | 1012.7 |
| 20260903182504 | 90 | 124 | 7.0 | 14.0 | 0.00 | 0.00 | 0.00 | 58 | 1012.7 |
| 20260903182405 | 90 | 125 | 7.0 | 14.0 | 0.00 | 0.00 | 0.00 | 59 | 1012.7 |
| 20260903182306 | 90 | 126 | 7.0 | 14.0 | 0.00 | 0.00 | 0.00 | 59 | 1012.7 |
| 20260903182204 | 90 | 127 | 7.0 | 14.0 | 0.00 | 0.00 | 0.00 | 58 | 1012.8 |
| 20260903182105 | 90 | 126 | 7.0 | 14.0 | 0.00 | 0.00 | 0.00 | 58 | 1012.8 |